Time,TemperatureF,DewpointF,PressureIn,WindDirection,WindDirectionDegrees,WindSpeedMPH,WindSpeedGustMPH,Humidity,HourlyPrecipIn,Conditions,Clouds,dailyrainin,SolarRadiationWatts/m^2,SoftwareType,DateUTC
2013-12-24 00:01:00,70.0,67.6,30.14,SSW,197,0.6,3.5,92,0.00,RA,,0.00,0.0,WeatherDisplay:10.37,2013-12-24 05:01:00,
2013-12-24 00:06:00,70.1,67.7,30.13,South,188,0.0,0.0,92,0.00,RA,,0.00,0.0,WeatherDisplay:10.37,2013-12-24 05:06:00,
2013-12-24 00:11:00,70.1,67.7,30.13,SSW,212,0.2,2.3,92,0.00,BKN,,0.00,0.0,WeatherDisplay:10.37,2013-12-24 05:11:00,
2013-12-24 00:12:00,70.2,67.8,30.13,SSW,212,0.1,1.2,92,0.00,BKN,,0.00,0.0,WeatherDisplay:10.37,2013-12-24 05:12:00,
2013-12-24 00:16:00,70.1,67.3,30.13,SSW,213,0.0,1.2,91,0.00,BKN,,0.00,0.0,WeatherDisplay:10.37,2013-12-24 05:16:00,
2013-12-24 00:17:00,70.2,67.8,30.13,SSW,213,0.0,0.0,92,0.00,BKN,,0.00,0.0,WeatherDisplay:10.37,2013-12-24 05:17:00,
2013-12-24 00:21:00,70.1,67.3,30.13,South,189,0.0,0.0,91,0.00,BKN,,0.00,0.0,WeatherDisplay:10.37,2013-12-24 05:21:00,
2013-12-24 00:22:00,70.1,67.3,30.13,South,189,0.0,0.0,91,0.00,BKN,,0.00,0.0,WeatherDisplay:10.37,2013-12-24 05:22:00,
2013-12-24 00:23:00,70.1,67.3,30.13,South,188,0.0,0.0,91,0.00,BKN,,0.00,0.0,WeatherDisplay:10.37,2013-12-24 05:23:00,
2013-12-24 00:26:00,69.9,67.5,30.12,South,188,0.0,0.0,92,0.00,BKN,,0.00,0.0,WeatherDisplay:10.37,2013-12-24 05:26:00,
2013-12-24 00:27:00,69.9,67.5,30.12,South,188,0.0,0.0,92,0.00,BKN,,0.00,0.0,WeatherDisplay:10.37,2013-12-24 05:27:00,
2013-12-24 00:28:00,69.9,67.5,30.13,South,189,0.0,0.0,92,0.00,BKN,,0.00,0.0,WeatherDisplay:10.37,2013-12-24 05:28:00,
2013-12-24 00:31:00,69.9,67.5,30.13,South,189,0.0,0.0,92,0.00,BKN,,0.00,0.0,WeatherDisplay:10.37,2013-12-24 05:31:00,
2013-12-24 00:32:00,69.9,67.5,30.13,South,189,0.0,0.0,92,0.00,BKN,,0.00,0.0,WeatherDisplay:10.37,2013-12-24 05:32:00,
2013-12-24 00:33:00,69.8,67.4,30.12,South,189,0.0,0.0,92,0.00,BKN,,0.00,0.0,WeatherDisplay:10.37,2013-12-24 05:33:00,
2013-12-24 00:34:00,69.8,67.4,30.12,South,189,0.0,0.0,92,0.00,BKN,,0.00,0.0,WeatherDisplay:10.37,2013-12-24 05:34:00,
2013-12-24 00:36:00,69.8,67.4,30.12,South,189,0.0,0.0,92,0.00,BKN,,0.00,0.0,WeatherDisplay:10.37,2013-12-24 05:36:00,
2013-12-24 00:37:00,69.8,67.4,30.12,South,189,0.0,0.0,92,0.00,BKN,,0.00,0.0,WeatherDisplay:10.37,2013-12-24 05:37:00,
2013-12-24 00:39:00,69.7,67.3,30.12,South,189,0.0,0.0,92,0.00,BKN,,0.00,0.0,WeatherDisplay:10.37,2013-12-24 05:39:00,
2013-12-24 00:41:00,69.7,67.3,30.12,South,191,0.0,0.0,92,0.00,BKN,,0.00,0.0,WeatherDisplay:10.37,2013-12-24 05:41:00,
2013-12-24 00:42:00,69.7,67.3,30.12,South,191,0.0,0.0,92,0.00,BKN,,0.00,0.0,WeatherDisplay:10.37,2013-12-24 05:42:00,
2013-12-24 00:43:00,69.7,67.3,30.12,South,190,0.0,0.0,92,0.00,BKN,,0.00,0.0,WeatherDisplay:10.37,2013-12-24 05:43:00,
2013-12-24 00:44:00,69.6,67.2,30.12,South,190,0.0,0.0,92,0.00,BKN,,0.00,0.0,WeatherDisplay:10.37,2013-12-24 05:44:00,
2013-12-24 00:45:00,69.6,67.2,30.12,South,191,0.0,0.0,92,0.00,BKN,,0.00,0.0,WeatherDisplay:10.37,2013-12-24 05:45:00,
2013-12-24 00:46:00,69.6,67.2,30.12,SSW,194,0.4,3.0,92,0.00,BKN,,0.00,0.0,WeatherDisplay:10.37,2013-12-24 05:46:00,
2013-12-24 00:47:00,69.6,67.2,30.12,SSW,194,0.8,3.5,92,0.00,BKN,,0.00,0.0,WeatherDisplay:10.37,2013-12-24 05:47:00,
2013-12-24 00:48:00,69.5,67.1,30.12,SSW,194,0.0,3.5,92,0.00,BKN,,0.00,0.0,WeatherDisplay:10.37,2013-12-24 05:48:00,
2013-12-24 00:50:00,69.5,67.1,30.12,SSW,194,0.0,0.0,92,0.00,BKN,,0.00,0.0,WeatherDisplay:10.37,2013-12-24 05:50:00,
2013-12-24 00:52:00,69.5,67.1,30.12,SSW,194,0.0,0.0,92,0.00,BKN,,0.00,0.0,WeatherDisplay:10.37,2013-12-24 05:52:00,
2013-12-24 00:53:00,69.4,67.0,30.12,SSW,194,0.0,0.0,92,0.00,BKN,,0.00,0.0,WeatherDisplay:10.37,2013-12-24 05:53:00,
2013-12-24 00:54:00,69.4,67.0,30.12,SSW,195,0.0,0.0,92,0.00,BKN,,0.00,0.0,WeatherDisplay:10.37,2013-12-24 05:54:00,
2013-12-24 00:55:00,69.4,67.0,30.12,SSW,195,0.0,0.0,92,0.00,BKN,,0.00,0.0,WeatherDisplay:10.37,2013-12-24 05:55:00,
2013-12-24 00:57:00,69.4,67.3,30.12,SSW,195,0.0,0.0,93,0.00,BKN,,0.00,0.0,WeatherDisplay:10.37,2013-12-24 05:57:00,
2013-12-24 00:58:00,69.3,67.2,30.12,SSW,196,0.0,0.0,93,0.00,BKN,,0.00,0.0,WeatherDisplay:10.37,2013-12-24 05:58:00,
2013-12-24 00:59:00,69.3,67.2,30.12,SSW,194,0.0,0.0,93,0.00,BKN,,0.00,0.0,WeatherDisplay:10.37,2013-12-24 05:59:00,
2013-12-24 01:00:00,69.3,67.2,30.12,SSW,195,0.0,0.0,93,0.00,BKN,,0.00,0.0,WeatherDisplay:10.37,2013-12-24 06:00:00,
2013-12-24 01:02:00,69.3,67.2,30.12,SSW,206,0.1,3.0,93,0.00,CLR,,0.00,0.0,WeatherDisplay:10.37,2013-12-24 06:02:00,
2013-12-24 01:03:00,69.3,67.2,30.12,SSW,207,0.8,0.0,93,0.00,CLR,,0.00,0.0,WeatherDisplay:10.37,2013-12-24 06:03:00,
2013-12-24 01:04:00,69.3,67.2,30.12,SSW,207,0.0,3.5,93,0.00,CLR,,0.00,0.0,WeatherDisplay:10.37,2013-12-24 06:04:00,
2013-12-24 01:05:00,69.2,67.1,30.12,SSW,207,0.0,0.0,93,0.00,CLR,,0.00,0.0,WeatherDisplay:10.37,2013-12-24 06:05:00,
2013-12-24 01:06:00,69.3,67.2,30.12,SSW,207,0.0,0.0,93,0.00,CLR,,0.00,0.0,WeatherDisplay:10.37,2013-12-24 06:06:00,
2013-12-24 01:07:00,69.3,67.2,30.12,SSW,207,0.0,0.0,93,0.00,CLR,,0.00,0.0,WeatherDisplay:10.37,2013-12-24 06:07:00,
2013-12-24 01:08:00,69.3,67.2,30.12,SSW,207,0.0,0.0,93,0.00,CLR,,0.00,0.0,WeatherDisplay:10.37,2013-12-24 06:08:00,
2013-12-24 01:09:00,69.2,67.1,30.12,SSW,207,0.7,1.0,93,0.00,CLR,,0.00,0.0,WeatherDisplay:10.37,2013-12-24 06:09:00,
2013-12-24 01:10:00,69.3,67.2,30.12,SSW,207,0.0,0.0,93,0.00,CLR,,0.00,0.0,WeatherDisplay:10.37,2013-12-24 06:10:00,
2013-12-24 01:11:00,69.3,67.2,30.12,SSW,207,0.0,0.0,93,0.00,CLR,,0.00,0.0,WeatherDisplay:10.37,2013-12-24 06:11:00,
2013-12-24 01:13:00,69.3,67.2,30.12,SW,224,0.5,0.0,93,0.00,CLR,,0.00,0.0,WeatherDisplay:10.37,2013-12-24 06:13:00,
2013-12-24 01:14:00,69.3,67.2,30.12,SW,224,0.0,3.5,93,0.00,CLR,,0.00,0.0,WeatherDisplay:10.37,2013-12-24 06:14:00,
2013-12-24 01:16:00,69.3,67.2,30.12,SSW,213,0.7,3.0,93,0.00,CLR,,0.00,0.0,WeatherDisplay:10.37,2013-12-24 06:16:00,
2013-12-24 01:17:00,69.3,67.2,30.12,SSW,213,0.2,3.5,93,0.00,CLR,,0.00,0.0,WeatherDisplay:10.37,2013-12-24 06:17:00,
2013-12-24 01:18:00,69.3,67.2,30.12,SW,214,0.0,0.0,93,0.00,CLR,,0.00,0.0,WeatherDisplay:10.37,2013-12-24 06:18:00,
2013-12-24 01:19:00,69.3,67.2,30.12,SSW,212,0.0,0.0,93,0.00,CLR,,0.00,0.0,WeatherDisplay:10.37,2013-12-24 06:19:00,
2013-12-24 01:21:00,69.3,67.2,30.12,SSW,212,0.0,0.0,93,0.00,CLR,,0.00,0.0,WeatherDisplay:10.37,2013-12-24 06:21:00,
2013-12-24 01:22:00,69.4,67.3,30.12,SSW,212,0.0,0.0,93,0.00,CLR,,0.00,0.0,WeatherDisplay:10.37,2013-12-24 06:22:00,
2013-12-24 01:23:00,69.4,67.3,30.12,SSW,212,0.0,0.0,93,0.00,CLR,,0.00,0.0,WeatherDisplay:10.37,2013-12-24 06:23:00,
2013-12-24 01:24:00,69.4,67.3,30.12,SW,215,0.5,3.5,93,0.00,CLR,,0.00,0.0,WeatherDisplay:10.37,2013-12-24 06:24:00,
2013-12-24 01:26:00,69.4,67.3,30.12,SW,215,0.0,0.0,93,0.00,CLR,,0.00,0.0,WeatherDisplay:10.37,2013-12-24 06:26:00,
2013-12-24 01:27:00,69.4,67.3,30.12,SW,215,0.0,0.0,93,0.00,CLR,,0.00,0.0,WeatherDisplay:10.37,2013-12-24 06:27:00,
2013-12-24 01:28:00,69.4,67.3,30.12,SW,228,0.0,3.0,93,0.00,CLR,,0.00,0.0,WeatherDisplay:10.37,2013-12-24 06:28:00,
2013-12-24 01:29:00,69.4,67.3,30.12,SW,227,1.3,2.0,93,0.00,CLR,,0.00,0.0,WeatherDisplay:10.37,2013-12-24 06:29:00,
2013-12-24 01:32:00,69.5,67.4,30.12,SSW,207,0.6,1.2,93,0.00,CLR,,0.00,0.0,WeatherDisplay:10.37,2013-12-24 06:32:00,
2013-12-24 01:33:00,69.6,67.5,30.12,SSW,209,0.0,1.0,93,0.00,CLR,,0.00,0.0,WeatherDisplay:10.37,2013-12-24 06:33:00,
2013-12-24 01:34:00,69.6,67.5,30.12,SSW,209,0.4,0.0,93,0.00,CLR,,0.00,0.0,WeatherDisplay:10.37,2013-12-24 06:34:00,
2013-12-24 01:37:00,69.6,67.5,30.12,SSW,194,0.0,3.5,93,0.00,CLR,,0.00,0.0,WeatherDisplay:10.37,2013-12-24 06:37:00,
2013-12-24 01:38:00,69.6,67.5,30.12,SW,214,0.1,3.5,93,0.00,CLR,,0.00,0.0,WeatherDisplay:10.37,2013-12-24 06:38:00,
2013-12-24 01:39:00,69.6,67.5,30.12,SW,215,0.0,0.0,93,0.00,CLR,,0.00,0.0,WeatherDisplay:10.37,2013-12-24 06:39:00,
2013-12-24 01:40:00,69.6,67.5,30.12,SSW,198,0.0,0.0,93,0.00,CLR,,0.00,0.0,WeatherDisplay:10.37,2013-12-24 06:40:00,
2013-12-24 01:42:00,69.7,67.3,30.12,SSW,201,0.0,0.0,92,0.00,CLR,,0.00,0.0,WeatherDisplay:10.37,2013-12-24 06:42:00,
2013-12-24 01:43:00,69.7,67.3,30.12,SSW,201,0.0,0.0,92,0.00,CLR,,0.00,0.0,WeatherDisplay:10.37,2013-12-24 06:43:00,
2013-12-24 01:45:00,69.7,67.3,30.12,SSW,205,0.2,3.5,92,0.00,CLR,,0.00,0.0,WeatherDisplay:10.37,2013-12-24 06:45:00,
2013-12-24 01:47:00,69.7,67.3,30.12,SSW,205,0.0,0.0,92,0.00,CLR,,0.00,0.0,WeatherDisplay:10.37,2013-12-24 06:47:00,
2013-12-24 01:48:00,69.8,67.4,30.12,SSW,205,0.0,0.0,92,0.00,CLR,,0.00,0.0,WeatherDisplay:10.37,2013-12-24 06:48:00,
2013-12-24 01:49:00,69.8,67.4,30.12,SSW,205,0.0,0.0,92,0.00,CLR,,0.00,0.0,WeatherDisplay:10.37,2013-12-24 06:49:00,
2013-12-24 01:50:00,69.8,67.4,30.12,SSW,210,0.0,0.0,92,0.00,CLR,,0.00,0.0,WeatherDisplay:10.37,2013-12-24 06:50:00,
2013-12-24 01:51:00,69.8,67.4,30.12,SSW,210,0.0,0.0,92,0.00,CLR,,0.00,0.0,WeatherDisplay:10.37,2013-12-24 06:51:00,
2013-12-24 01:52:00,69.8,67.4,30.12,SW,215,0.0,0.0,92,0.00,CLR,,0.00,0.0,WeatherDisplay:10.37,2013-12-24 06:52:00,
2013-12-24 01:53:00,69.8,67.4,30.12,SW,214,0.0,0.0,92,0.00,CLR,,0.00,0.0,WeatherDisplay:10.37,2013-12-24 06:53:00,
2013-12-24 01:54:00,69.8,67.4,30.12,SW,214,0.0,0.0,92,0.00,CLR,,0.00,0.0,WeatherDisplay:10.37,2013-12-24 06:54:00,
2013-12-24 01:55:00,69.8,67.4,30.12,SW,214,0.0,0.0,92,0.00,CLR,,0.00,0.0,WeatherDisplay:10.37,2013-12-24 06:55:00,
2013-12-24 01:56:00,69.8,67.4,30.12,SW,215,0.0,0.0,92,0.00,CLR,,0.00,0.0,WeatherDisplay:10.37,2013-12-24 06:56:00,
2013-12-24 01:57:00,69.7,67.3,30.12,SW,217,0.0,2.3,92,0.00,CLR,,0.00,0.0,WeatherDisplay:10.37,2013-12-24 06:57:00,
2013-12-24 01:59:00,69.7,67.3,30.12,SW,218,0.0,0.0,92,0.00,CLR,,0.00,0.0,WeatherDisplay:10.37,2013-12-24 06:59:00,
2013-12-24 02:00:00,69.7,67.3,30.12,SW,218,0.0,0.0,92,0.00,CLR,,0.00,0.0,WeatherDisplay:10.37,2013-12-24 07:00:00,
2013-12-24 02:01:00,69.6,67.2,30.12,SW,219,0.0,0.0,92,0.00,CLR,,0.00,0.0,WeatherDisplay:10.37,2013-12-24 07:01:00,
2013-12-24 02:04:00,69.6,67.2,30.12,SW,218,0.0,0.0,92,0.00,CLR,,0.00,0.0,WeatherDisplay:10.37,2013-12-24 07:04:00,
2013-12-24 02:05:00,69.5,67.1,30.12,SW,218,0.0,0.0,92,0.00,CLR,,0.00,0.0,WeatherDisplay:10.37,2013-12-24 07:05:00,
2013-12-24 02:06:00,69.5,67.1,30.12,SSW,201,0.5,1.2,92,0.00,CLR,,0.00,0.0,WeatherDisplay:10.37,2013-12-24 07:06:00,
2013-12-24 02:09:00,69.4,67.0,30.12,SSW,201,0.0,0.0,92,0.00,CLR,,0.00,0.0,WeatherDisplay:10.37,2013-12-24 07:09:00,
2013-12-24 02:10:00,69.4,67.0,30.12,SSW,201,0.0,0.0,92,0.00,CLR,,0.00,0.0,WeatherDisplay:10.37,2013-12-24 07:10:00,
2013-12-24 02:12:00,69.4,67.0,30.12,SSW,205,0.0,0.0,92,0.00,CLR,,0.00,0.0,WeatherDisplay:10.37,2013-12-24 07:12:00,
2013-12-24 02:15:00,69.3,66.9,30.12,SSW,205,0.0,0.0,92,0.00,CLR,,0.00,0.0,WeatherDisplay:10.37,2013-12-24 07:15:00,
2013-12-24 02:16:00,69.2,67.1,30.12,SSW,205,0.0,0.0,93,0.00,CLR,,0.00,0.0,WeatherDisplay:10.37,2013-12-24 07:16:00,
2013-12-24 02:17:00,69.2,67.1,30.12,SSW,205,0.0,0.0,93,0.00,CLR,,0.00,0.0,WeatherDisplay:10.37,2013-12-24 07:17:00,
2013-12-24 02:20:00,69.1,67.0,30.12,SSW,205,0.0,0.0,93,0.00,CLR,,0.00,0.0,WeatherDisplay:10.37,2013-12-24 07:20:00,
2013-12-24 02:21:00,69.1,67.0,30.12,SSW,205,0.0,0.0,93,0.00,CLR,,0.00,0.0,WeatherDisplay:10.37,2013-12-24 07:21:00,
2013-12-24 02:22:00,69.1,67.0,30.12,SSW,205,0.0,0.0,93,0.00,CLR,,0.00,0.0,WeatherDisplay:10.37,2013-12-24 07:22:00,
2013-12-24 02:25:00,69.0,66.9,30.12,SSW,212,0.2,3.5,93,0.00,CLR,,0.00,0.0,WeatherDisplay:10.37,2013-12-24 07:25:00,
2013-12-24 02:26:00,69.0,66.9,30.12,SSW,211,0.1,3.5,93,0.00,CLR,,0.00,0.0,WeatherDisplay:10.37,2013-12-24 07:26:00,
2013-12-24 02:27:00,69.0,66.9,30.12,SSW,211,0.0,0.0,93,0.00,CLR,,0.00,0.0,WeatherDisplay:10.37,2013-12-24 07:27:00,
2013-12-24 02:30:00,68.9,66.8,30.11,SSW,212,0.0,0.0,93,0.00,CLR,,0.00,0.0,WeatherDisplay:10.37,2013-12-24 07:30:00,
2013-12-24 02:31:00,68.8,66.7,30.11,SSW,211,0.0,0.0,93,0.00,CLR,,0.00,0.0,WeatherDisplay:10.37,2013-12-24 07:31:00,
2013-12-24 02:32:00,68.8,66.7,30.11,SSW,211,0.0,0.0,93,0.00,CLR,,0.00,0.0,WeatherDisplay:10.37,2013-12-24 07:32:00,
2013-12-24 02:35:00,68.7,66.6,30.11,SSW,212,0.0,0.0,93,0.00,CLR,,0.00,0.0,WeatherDisplay:10.37,2013-12-24 07:35:00,
2013-12-24 02:36:00,68.7,66.6,30.11,SSW,211,0.0,0.0,93,0.00,CLR,,0.00,0.0,WeatherDisplay:10.37,2013-12-24 07:36:00,
2013-12-24 02:37:00,68.7,66.6,30.11,SSW,211,0.0,0.0,93,0.00,CLR,,0.00,0.0,WeatherDisplay:10.37,2013-12-24 07:37:00,
2013-12-24 02:40:00,68.6,66.5,30.11,SSW,211,0.0,0.0,93,0.00,CLR,,0.00,0.0,WeatherDisplay:10.37,2013-12-24 07:40:00,
2013-12-24 02:41:00,68.6,66.5,30.11,SSW,211,0.0,0.0,93,0.00,CLR,,0.00,0.0,WeatherDisplay:10.37,2013-12-24 07:41:00,
2013-12-24 02:42:00,68.6,66.5,30.11,SSW,211,0.0,0.0,93,0.00,CLR,,0.00,0.0,WeatherDisplay:10.37,2013-12-24 07:42:00,
2013-12-24 02:45:00,68.5,66.4,30.11,SSW,212,0.0,0.0,93,0.00,CLR,,0.00,0.0,WeatherDisplay:10.37,2013-12-24 07:45:00,
2013-12-24 02:46:00,68.5,66.7,30.11,SSW,212,0.0,0.0,94,0.00,CLR,,0.00,0.0,WeatherDisplay:10.37,2013-12-24 07:46:00,
2013-12-24 02:47:00,68.5,66.4,30.11,SSW,211,0.0,0.0,93,0.00,CLR,,0.00,0.0,WeatherDisplay:10.37,2013-12-24 07:47:00,
2013-12-24 02:48:00,68.5,66.7,30.11,SSW,211,0.0,0.0,94,0.00,CLR,,0.00,0.0,WeatherDisplay:10.37,2013-12-24 07:48:00,
2013-12-24 02:50:00,68.5,66.7,30.11,SSW,212,0.0,0.0,94,0.00,CLR,,0.00,0.0,WeatherDisplay:10.37,2013-12-24 07:50:00,
2013-12-24 02:51:00,68.4,66.6,30.11,SSW,211,0.0,0.0,94,0.00,CLR,,0.00,0.0,WeatherDisplay:10.37,2013-12-24 07:51:00,
2013-12-24 02:52:00,68.5,66.7,30.11,SSW,211,0.0,0.0,94,0.00,CLR,,0.00,0.0,WeatherDisplay:10.37,2013-12-24 07:52:00,
2013-12-24 02:53:00,68.5,66.7,30.11,SSW,211,0.0,0.0,94,0.00,CLR,,0.00,0.0,WeatherDisplay:10.37,2013-12-24 07:53:00,
2013-12-24 02:55:00,68.5,66.7,30.11,SSW,211,0.0,0.0,94,0.00,CLR,,0.00,0.0,WeatherDisplay:10.37,2013-12-24 07:55:00,
2013-12-24 02:56:00,68.4,66.6,30.11,SSW,211,0.0,0.0,94,0.00,CLR,,0.00,0.0,WeatherDisplay:10.37,2013-12-24 07:56:00,
2013-12-24 02:57:00,68.4,66.6,30.11,SSW,211,0.0,0.0,94,0.00,CLR,,0.00,0.0,WeatherDisplay:10.37,2013-12-24 07:57:00,
2013-12-24 02:58:00,68.4,66.6,30.11,SSW,211,0.0,0.0,94,0.00,CLR,,0.00,0.0,WeatherDisplay:10.37,2013-12-24 07:58:00,
2013-12-24 03:01:00,68.3,66.5,30.11,SSW,211,0.0,0.0,94,0.00,CLR,,0.00,0.0,WeatherDisplay:10.37,2013-12-24 08:01:00,
2013-12-24 03:02:00,68.3,66.5,30.11,SSW,211,0.0,0.0,94,0.00,CLR,,0.00,0.0,WeatherDisplay:10.37,2013-12-24 08:02:00,
2013-12-24 03:03:00,68.3,66.5,30.11,SSW,211,0.0,0.0,94,0.00,CLR,,0.00,0.0,WeatherDisplay:10.37,2013-12-24 08:03:00,
2013-12-24 03:04:00,68.3,66.5,30.11,SSW,211,0.0,0.0,94,0.00,CLR,,0.00,0.0,WeatherDisplay:10.37,2013-12-24 08:04:00,
2013-12-24 03:06:00,68.3,66.5,30.11,SSW,211,0.0,0.0,94,0.00,CLR,,0.00,0.0,WeatherDisplay:10.37,2013-12-24 08:06:00,
2013-12-24 03:07:00,68.2,66.4,30.11,SSW,211,0.0,0.0,94,0.00,CLR,,0.00,0.0,WeatherDisplay:10.37,2013-12-24 08:07:00,
2013-12-24 03:08:00,68.2,66.4,30.11,SSW,212,0.0,0.0,94,0.00,CLR,,0.00,0.0,WeatherDisplay:10.37,2013-12-24 08:08:00,
2013-12-24 03:09:00,68.2,66.4,30.11,SSW,211,0.0,0.0,94,0.00,CLR,,0.00,0.0,WeatherDisplay:10.37,2013-12-24 08:09:00,
2013-12-24 03:11:00,68.2,66.4,30.11,SW,215,0.0,2.3,94,0.00,CLR,,0.00,0.0,WeatherDisplay:10.37,2013-12-24 08:11:00,
2013-12-24 03:13:00,68.2,66.4,30.11,SW,216,0.0,0.0,94,0.00,CLR,,0.00,0.0,WeatherDisplay:10.37,2013-12-24 08:13:00,
2013-12-24 03:14:00,68.2,66.4,30.11,SW,215,0.0,0.0,94,0.00,CLR,,0.00,0.0,WeatherDisplay:10.37,2013-12-24 08:14:00,
2013-12-24 03:16:00,68.1,66.3,30.11,SW,216,0.0,0.0,94,0.00,CLR,,0.00,0.0,WeatherDisplay:10.37,2013-12-24 08:16:00,
2013-12-24 03:17:00,68.1,66.3,30.11,SW,215,0.0,0.0,94,0.00,CLR,,0.00,0.0,WeatherDisplay:10.37,2013-12-24 08:17:00,
2013-12-24 03:18:00,68.1,66.3,30.11,SW,215,0.0,0.0,94,0.00,CLR,,0.00,0.0,WeatherDisplay:10.37,2013-12-24 08:18:00,
2013-12-24 03:19:00,68.1,66.3,30.11,SW,215,0.1,0.0,94,0.00,CLR,,0.00,0.0,WeatherDisplay:10.37,2013-12-24 08:19:00,
2013-12-24 03:21:00,68.0,66.2,30.11,SW,214,0.0,0.0,94,0.00,CLR,,0.00,0.0,WeatherDisplay:10.37,2013-12-24 08:21:00,
2013-12-24 03:22:00,68.0,66.2,30.11,SW,214,0.0,0.0,94,0.00,CLR,,0.00,0.0,WeatherDisplay:10.37,2013-12-24 08:22:00,
2013-12-24 03:23:00,68.0,66.2,30.11,SW,214,0.0,0.0,94,0.00,CLR,,0.00,0.0,WeatherDisplay:10.37,2013-12-24 08:23:00,
2013-12-24 03:24:00,68.0,66.2,30.11,SW,214,0.0,0.0,94,0.00,CLR,,0.00,0.0,WeatherDisplay:10.37,2013-12-24 08:24:00,
2013-12-24 03:27:00,68.0,66.2,30.11,SW,215,0.0,0.0,94,0.00,CLR,,0.00,0.0,WeatherDisplay:10.37,2013-12-24 08:27:00,
2013-12-24 03:28:00,68.0,66.2,30.11,SW,214,0.0,0.0,94,0.00,CLR,,0.00,0.0,WeatherDisplay:10.37,2013-12-24 08:28:00,
2013-12-24 03:29:00,68.0,66.2,30.11,SW,214,0.0,0.0,94,0.00,CLR,,0.00,0.0,WeatherDisplay:10.37,2013-12-24 08:29:00,
2013-12-24 03:32:00,67.9,66.1,30.11,SW,214,0.0,0.0,94,0.00,CLR,,0.00,0.0,WeatherDisplay:10.37,2013-12-24 08:32:00,
2013-12-24 03:33:00,67.9,66.1,30.11,SW,214,0.0,0.0,94,0.00,CLR,,0.00,0.0,WeatherDisplay:10.37,2013-12-24 08:33:00,
2013-12-24 03:34:00,67.9,66.1,30.11,SW,214,0.0,0.0,94,0.00,CLR,,0.00,0.0,WeatherDisplay:10.37,2013-12-24 08:34:00,
2013-12-24 03:37:00,67.9,66.4,30.11,SW,215,0.0,0.0,95,0.00,CLR,,0.00,0.0,WeatherDisplay:10.37,2013-12-24 08:37:00,
2013-12-24 03:38:00,67.9,66.4,30.11,SW,214,0.0,0.0,95,0.00,CLR,,0.00,0.0,WeatherDisplay:10.37,2013-12-24 08:38:00,
2013-12-24 03:39:00,67.9,66.4,30.11,SW,215,0.0,0.0,95,0.00,CLR,,0.00,0.0,WeatherDisplay:10.37,2013-12-24 08:39:00,
2013-12-24 03:40:00,67.9,66.4,30.11,SW,214,0.0,0.0,95,0.00,CLR,,0.00,0.0,WeatherDisplay:10.37,2013-12-24 08:40:00,
2013-12-24 03:42:00,67.8,66.3,30.11,SW,215,0.0,0.0,95,0.00,CLR,,0.00,0.0,WeatherDisplay:10.37,2013-12-24 08:42:00,
2013-12-24 03:43:00,67.8,66.3,30.11,SW,215,0.0,0.0,95,0.00,CLR,,0.00,0.0,WeatherDisplay:10.37,2013-12-24 08:43:00,
2013-12-24 03:44:00,67.8,66.3,30.11,SW,214,0.0,0.0,95,0.00,CLR,,0.00,0.0,WeatherDisplay:10.37,2013-12-24 08:44:00,
2013-12-24 03:45:00,67.8,66.3,30.11,SW,214,0.0,0.0,95,0.00,CLR,,0.00,0.0,WeatherDisplay:10.37,2013-12-24 08:45:00,
2013-12-24 03:47:00,67.8,66.3,30.11,SW,214,0.0,0.0,95,0.00,CLR,,0.00,0.0,WeatherDisplay:10.37,2013-12-24 08:47:00,
2013-12-24 03:48:00,67.8,66.3,30.11,SSW,213,0.0,0.0,95,0.00,CLR,,0.00,0.0,WeatherDisplay:10.37,2013-12-24 08:48:00,
2013-12-24 03:49:00,67.7,66.2,30.11,SW,214,0.0,0.0,95,0.00,CLR,,0.00,0.0,WeatherDisplay:10.37,2013-12-24 08:49:00,
2013-12-24 03:50:00,67.7,66.2,30.11,SW,214,0.0,0.0,95,0.00,CLR,,0.00,0.0,WeatherDisplay:10.37,2013-12-24 08:50:00,
2013-12-24 03:51:00,67.7,66.2,30.11,SW,214,0.0,0.0,95,0.00,CLR,,0.00,0.0,WeatherDisplay:10.37,2013-12-24 08:51:00,
2013-12-24 03:52:00,67.7,66.2,30.11,SW,214,0.0,0.0,95,0.00,CLR,,0.00,0.0,WeatherDisplay:10.37,2013-12-24 08:52:00,
2013-12-24 03:53:00,67.7,66.2,30.11,SW,214,0.0,0.0,95,0.00,CLR,,0.00,0.0,WeatherDisplay:10.37,2013-12-24 08:53:00,
2013-12-24 03:54:00,67.6,66.1,30.11,SW,215,0.0,0.0,95,0.00,CLR,,0.00,0.0,WeatherDisplay:10.37,2013-12-24 08:54:00,
2013-12-24 03:55:00,67.7,66.2,30.11,SW,214,0.0,0.0,95,0.00,CLR,,0.00,0.0,WeatherDisplay:10.37,2013-12-24 08:55:00,
2013-12-24 03:56:00,67.6,66.1,30.11,SW,214,0.0,0.0,95,0.00,CLR,,0.00,0.0,WeatherDisplay:10.37,2013-12-24 08:56:00,
2013-12-24 03:57:00,67.6,66.1,30.11,SW,215,0.0,0.0,95,0.00,CLR,,0.00,0.0,WeatherDisplay:10.37,2013-12-24 08:57:00,
2013-12-24 03:58:00,67.6,66.1,30.11,SW,214,0.0,0.0,95,0.00,CLR,,0.00,0.0,WeatherDisplay:10.37,2013-12-24 08:58:00,
2013-12-24 04:00:00,67.5,66.0,30.11,SW,214,0.0,0.0,95,0.00,CLR,,0.00,0.0,WeatherDisplay:10.37,2013-12-24 09:00:00,
2013-12-24 04:02:00,67.4,65.9,30.11,SW,214,0.0,0.0,95,0.00,CLR,,0.00,0.0,WeatherDisplay:10.37,2013-12-24 09:02:00,
2013-12-24 04:03:00,67.4,65.9,30.11,SW,214,0.0,0.0,95,0.00,CLR,,0.00,0.0,WeatherDisplay:10.37,2013-12-24 09:03:00,
2013-12-24 04:05:00,67.5,66.0,30.11,SW,214,0.0,0.0,95,0.00,CLR,,0.00,0.0,WeatherDisplay:10.37,2013-12-24 09:05:00,
2013-12-24 04:07:00,67.5,66.0,30.11,SW,214,0.0,0.0,95,0.00,CLR,,0.00,0.0,WeatherDisplay:10.37,2013-12-24 09:07:00,
2013-12-24 04:08:00,67.5,66.0,30.11,SW,215,0.0,0.0,95,0.00,CLR,,0.00,0.0,WeatherDisplay:10.37,2013-12-24 09:08:00,
2013-12-24 04:09:00,67.5,66.0,30.11,SW,214,0.0,0.0,95,0.00,CLR,,0.00,0.0,WeatherDisplay:10.37,2013-12-24 09:09:00,
2013-12-24 04:10:00,67.5,66.0,30.11,SW,214,0.0,0.0,95,0.00,CLR,,0.00,0.0,WeatherDisplay:10.37,2013-12-24 09:10:00,
2013-12-24 04:12:00,67.5,66.0,30.11,SW,215,0.1,0.0,95,0.00,CLR,,0.00,0.0,WeatherDisplay:10.37,2013-12-24 09:12:00,
2013-12-24 04:13:00,67.5,66.0,30.11,SW,215,0.0,1.2,95,0.00,CLR,,0.00,0.0,WeatherDisplay:10.37,2013-12-24 09:13:00,
2013-12-24 04:14:00,67.5,66.0,30.11,SW,215,0.0,0.0,95,0.00,CLR,,0.00,0.0,WeatherDisplay:10.37,2013-12-24 09:14:00,
2013-12-24 04:15:00,67.5,66.0,30.11,SW,215,0.0,0.0,95,0.00,CLR,,0.00,0.0,WeatherDisplay:10.37,2013-12-24 09:15:00,
2013-12-24 04:16:00,67.5,66.0,30.11,SW,215,0.0,0.0,95,0.00,CLR,,0.00,0.0,WeatherDisplay:10.37,2013-12-24 09:16:00,
2013-12-24 04:17:00,67.5,66.0,30.11,SW,214,0.0,0.0,95,0.00,CLR,,0.00,0.0,WeatherDisplay:10.37,2013-12-24 09:17:00,
2013-12-24 04:18:00,67.5,66.0,30.11,SW,215,0.0,0.0,95,0.00,CLR,,0.00,0.0,WeatherDisplay:10.37,2013-12-24 09:18:00,
2013-12-24 04:20:00,67.5,66.0,30.11,SW,214,0.0,0.0,95,0.00,CLR,,0.00,0.0,WeatherDisplay:10.37,2013-12-24 09:20:00,
2013-12-24 04:21:00,67.6,66.4,30.11,SW,215,0.0,0.0,96,0.00,CLR,,0.00,0.0,WeatherDisplay:10.37,2013-12-24 09:21:00,
2013-12-24 04:22:00,67.6,66.4,30.11,SW,215,0.0,0.0,96,0.00,CLR,,0.00,0.0,WeatherDisplay:10.37,2013-12-24 09:22:00,
2013-12-24 04:23:00,67.6,66.4,30.11,SW,215,0.0,0.0,96,0.00,CLR,,0.00,0.0,WeatherDisplay:10.37,2013-12-24 09:23:00,
2013-12-24 04:26:00,67.6,66.4,30.11,SW,214,0.0,0.0,96,0.00,CLR,,0.00,0.0,WeatherDisplay:10.37,2013-12-24 09:26:00,
2013-12-24 04:27:00,67.6,66.4,30.11,SW,214,0.0,1.2,96,0.00,CLR,,0.00,0.0,WeatherDisplay:10.37,2013-12-24 09:27:00,
2013-12-24 04:29:00,67.6,66.4,30.11,SW,214,0.0,0.0,96,0.00,CLR,,0.00,0.0,WeatherDisplay:10.37,2013-12-24 09:29:00,
2013-12-24 04:31:00,67.7,66.5,30.11,SW,214,0.0,0.0,96,0.00,CLR,,0.00,0.0,WeatherDisplay:10.37,2013-12-24 09:31:00,
2013-12-24 04:33:00,67.8,66.6,30.11,SW,219,0.0,1.2,96,0.00,CLR,,0.00,0.0,WeatherDisplay:10.37,2013-12-24 09:33:00,
2013-12-24 04:34:00,67.8,66.6,30.11,SW,219,0.0,0.0,96,0.00,CLR,,0.00,0.0,WeatherDisplay:10.37,2013-12-24 09:34:00,
2013-12-24 04:36:00,67.8,66.6,30.11,SW,219,0.0,0.0,96,0.00,CLR,,0.00,0.0,WeatherDisplay:10.37,2013-12-24 09:36:00,
2013-12-24 04:38:00,67.9,66.7,30.11,SW,218,0.0,0.0,96,0.00,CLR,,0.00,0.0,WeatherDisplay:10.37,2013-12-24 09:38:00,
2013-12-24 04:39:00,67.9,66.7,30.11,SW,218,0.0,0.0,96,0.00,CLR,,0.00,0.0,WeatherDisplay:10.37,2013-12-24 09:39:00,
2013-12-24 04:41:00,67.9,66.7,30.11,SW,218,0.0,0.0,96,0.00,CLR,,0.00,0.0,WeatherDisplay:10.37,2013-12-24 09:41:00,
2013-12-24 04:42:00,68.0,66.8,30.11,SW,218,0.0,0.0,96,0.00,CLR,,0.00,0.0,WeatherDisplay:10.37,2013-12-24 09:42:00,
2013-12-24 04:43:00,68.0,66.8,30.11,SW,218,0.0,0.0,96,0.00,CLR,,0.00,0.0,WeatherDisplay:10.37,2013-12-24 09:43:00,
2013-12-24 04:44:00,68.0,66.8,30.11,SW,215,0.0,1.2,96,0.00,CLR,,0.00,0.0,WeatherDisplay:10.37,2013-12-24 09:44:00,
2013-12-24 04:45:00,68.0,66.8,30.11,SW,215,0.0,1.2,96,0.00,CLR,,0.00,0.0,WeatherDisplay:10.37,2013-12-24 09:45:00,
2013-12-24 04:47:00,68.0,66.8,30.11,SW,215,0.0,0.0,96,0.00,CLR,,0.00,0.0,WeatherDisplay:10.37,2013-12-24 09:47:00,
2013-12-24 04:48:00,68.1,66.9,30.11,SW,216,0.0,0.0,96,0.00,CLR,,0.00,0.0,WeatherDisplay:10.37,2013-12-24 09:48:00,
2013-12-24 04:49:00,68.1,66.9,30.11,SSW,211,0.5,1.2,96,0.00,CLR,,0.00,0.0,WeatherDisplay:10.37,2013-12-24 09:49:00,
2013-12-24 04:50:00,68.1,66.9,30.11,SSW,211,0.3,2.3,96,0.00,CLR,,0.00,0.0,WeatherDisplay:10.37,2013-12-24 09:50:00,
2013-12-24 04:52:00,68.1,66.9,30.11,SSW,211,0.0,0.0,96,0.00,CLR,,0.00,0.0,WeatherDisplay:10.37,2013-12-24 09:52:00,
2013-12-24 04:53:00,68.2,67.0,30.11,SSW,212,0.0,0.0,96,0.00,CLR,,0.00,0.0,WeatherDisplay:10.37,2013-12-24 09:53:00,
2013-12-24 04:54:00,68.2,67.0,30.11,SSW,211,0.0,0.0,96,0.00,CLR,,0.00,0.0,WeatherDisplay:10.37,2013-12-24 09:54:00,
2013-12-24 04:55:00,68.2,67.0,30.11,SSW,211,0.0,0.0,96,0.00,CLR,,0.00,0.0,WeatherDisplay:10.37,2013-12-24 09:55:00,
2013-12-24 04:57:00,68.1,66.9,30.11,SSW,211,0.0,0.0,96,0.00,CLR,,0.00,0.0,WeatherDisplay:10.37,2013-12-24 09:57:00,
2013-12-24 04:59:00,68.1,66.9,30.11,SSW,211,0.0,0.0,96,0.00,CLR,,0.00,0.0,WeatherDisplay:10.37,2013-12-24 09:59:00,
2013-12-24 05:00:00,68.1,66.9,30.11,SSW,211,0.0,0.0,96,0.00,CLR,,0.00,0.0,WeatherDisplay:10.37,2013-12-24 10:00:00,
2013-12-24 05:02:00,68.1,66.9,30.11,SSW,211,0.0,0.0,96,0.00,FEW,,0.00,0.0,WeatherDisplay:10.37,2013-12-24 10:02:00,
2013-12-24 05:03:00,68.1,66.9,30.11,SSW,211,0.0,0.0,96,0.00,FEW,,0.00,0.0,WeatherDisplay:10.37,2013-12-24 10:03:00,
2013-12-24 05:04:00,68.0,66.8,30.11,SSW,211,0.0,0.0,96,0.00,FEW,,0.00,0.0,WeatherDisplay:10.37,2013-12-24 10:04:00,
2013-12-24 05:05:00,68.0,66.8,30.11,SSW,211,0.0,0.0,96,0.00,FEW,,0.00,0.0,WeatherDisplay:10.37,2013-12-24 10:05:00,
2013-12-24 05:07:00,68.0,66.5,30.11,SSW,211,0.0,0.0,95,0.00,FEW,,0.00,0.0,WeatherDisplay:10.37,2013-12-24 10:07:00,
2013-12-24 05:08:00,67.9,66.4,30.11,SSW,211,0.0,0.0,95,0.00,FEW,,0.00,0.0,WeatherDisplay:10.37,2013-12-24 10:08:00,
2013-12-24 05:09:00,67.9,66.7,30.11,SSW,209,0.3,3.5,96,0.00,FEW,,0.00,0.0,WeatherDisplay:10.37,2013-12-24 10:09:00,
2013-12-24 05:10:00,67.9,66.7,30.11,SSW,209,0.2,3.5,96,0.00,FEW,,0.00,0.0,WeatherDisplay:10.37,2013-12-24 10:10:00,
2013-12-24 05:11:00,67.9,66.7,30.11,SSW,209,0.0,1.2,96,0.00,FEW,,0.00,0.0,WeatherDisplay:10.37,2013-12-24 10:11:00,
2013-12-24 05:12:00,67.9,66.7,30.11,SSW,209,0.0,0.0,96,0.00,FEW,,0.00,0.0,WeatherDisplay:10.37,2013-12-24 10:12:00,
2013-12-24 05:13:00,67.8,66.6,30.11,SSW,209,0.0,0.0,96,0.00,FEW,,0.00,0.0,WeatherDisplay:10.37,2013-12-24 10:13:00,
2013-12-24 05:14:00,67.8,66.6,30.11,SSW,209,0.0,0.0,96,0.00,FEW,,0.00,0.0,WeatherDisplay:10.37,2013-12-24 10:14:00,
2013-12-24 05:15:00,67.8,66.6,30.11,SSW,209,0.0,0.0,96,0.00,FEW,,0.00,0.0,WeatherDisplay:10.37,2013-12-24 10:15:00,
2013-12-24 05:16:00,67.8,66.6,30.11,SSW,209,0.0,0.0,96,0.00,FEW,,0.00,0.0,WeatherDisplay:10.37,2013-12-24 10:16:00,
2013-12-24 05:18:00,67.9,66.7,30.11,SSW,209,0.0,0.0,96,0.00,FEW,,0.00,0.0,WeatherDisplay:10.37,2013-12-24 10:18:00,
2013-12-24 05:19:00,67.9,66.7,30.11,SSW,209,0.0,0.0,96,0.00,FEW,,0.00,0.0,WeatherDisplay:10.37,2013-12-24 10:19:00,
2013-12-24 05:20:00,67.9,66.7,30.11,SSW,209,0.0,0.0,96,0.00,FEW,,0.00,0.0,WeatherDisplay:10.37,2013-12-24 10:20:00,
2013-12-24 05:21:00,67.9,66.7,30.11,SSW,209,0.0,0.0,96,0.00,FEW,,0.00,0.0,WeatherDisplay:10.37,2013-12-24 10:21:00,
2013-12-24 05:24:00,67.9,66.7,30.11,SSW,209,0.0,0.0,96,0.00,FEW,,0.00,0.0,WeatherDisplay:10.37,2013-12-24 10:24:00,
2013-12-24 05:26:00,68.0,66.8,30.11,SSW,209,0.0,1.2,96,0.00,FEW,,0.00,0.0,WeatherDisplay:10.37,2013-12-24 10:26:00,
2013-12-24 05:27:00,68.0,66.8,30.11,SSW,209,0.0,0.0,96,0.00,FEW,,0.00,0.0,WeatherDisplay:10.37,2013-12-24 10:27:00,
2013-12-24 05:29:00,68.0,66.8,30.11,SSW,209,0.0,0.0,96,0.00,FEW,,0.00,0.0,WeatherDisplay:10.37,2013-12-24 10:29:00,
2013-12-24 05:30:00,68.0,66.8,30.11,SSW,209,0.0,0.0,96,0.00,FEW,,0.00,0.0,WeatherDisplay:10.37,2013-12-24 10:30:00,
2013-12-24 05:31:00,68.0,66.8,30.11,SSW,209,0.0,0.0,96,0.00,FEW,,0.00,0.0,WeatherDisplay:10.37,2013-12-24 10:31:00,
2013-12-24 05:33:00,68.1,66.9,30.11,SSW,209,0.0,0.0,96,0.00,FEW,,0.00,0.0,WeatherDisplay:10.37,2013-12-24 10:33:00,
2013-12-24 05:34:00,68.1,66.9,30.11,SSW,209,0.0,0.0,96,0.00,FEW,,0.00,0.0,WeatherDisplay:10.37,2013-12-24 10:34:00,
2013-12-24 05:35:00,68.1,66.9,30.11,SSW,209,0.0,0.0,96,0.00,FEW,,0.00,0.0,WeatherDisplay:10.37,2013-12-24 10:35:00,
2013-12-24 05:36:00,68.1,66.9,30.11,SSW,209,0.0,0.0,96,0.00,FEW,,0.00,0.0,WeatherDisplay:10.37,2013-12-24 10:36:00,
2013-12-24 05:37:00,68.1,66.9,30.11,SSW,209,0.0,0.0,96,0.00,FEW,,0.00,0.0,WeatherDisplay:10.37,2013-12-24 10:37:00,
2013-12-24 05:38:00,68.1,66.9,30.12,SSW,209,0.0,0.0,96,0.00,FEW,,0.00,0.0,WeatherDisplay:10.37,2013-12-24 10:38:00,
2013-12-24 05:39:00,68.1,66.9,30.12,SSW,209,0.0,0.0,96,0.00,FEW,,0.00,0.0,WeatherDisplay:10.37,2013-12-24 10:39:00,
2013-12-24 05:40:00,68.1,66.9,30.12,SSW,209,0.0,0.0,96,0.00,FEW,,0.00,0.0,WeatherDisplay:10.37,2013-12-24 10:40:00,
2013-12-24 05:41:00,68.2,67.0,30.12,SSW,209,0.0,0.0,96,0.00,FEW,,0.00,0.0,WeatherDisplay:10.37,2013-12-24 10:41:00,
2013-12-24 05:42:00,68.2,67.0,30.12,SSW,209,0.0,0.0,96,0.00,FEW,,0.00,0.0,WeatherDisplay:10.37,2013-12-24 10:42:00,
2013-12-24 05:43:00,68.2,67.0,30.12,SSW,209,0.0,0.0,96,0.00,FEW,,0.00,0.0,WeatherDisplay:10.37,2013-12-24 10:43:00,
2013-12-24 05:45:00,68.2,67.0,30.12,SSW,209,0.0,0.0,96,0.00,FEW,,0.00,0.0,WeatherDisplay:10.37,2013-12-24 10:45:00,
2013-12-24 05:46:00,68.2,67.0,30.12,SSW,209,0.1,1.2,96,0.00,FEW,,0.00,0.0,WeatherDisplay:10.37,2013-12-24 10:46:00,
2013-12-24 05:47:00,68.2,67.0,30.12,SSW,209,0.0,1.2,96,0.00,FEW,,0.00,0.0,WeatherDisplay:10.37,2013-12-24 10:47:00,
2013-12-24 05:48:00,68.3,67.1,30.12,SSW,210,0.0,0.0,96,0.00,FEW,,0.00,0.0,WeatherDisplay:10.37,2013-12-24 10:48:00,
2013-12-24 05:50:00,68.3,67.1,30.12,SSW,209,0.0,0.0,96,0.00,FEW,,0.00,0.0,WeatherDisplay:10.37,2013-12-24 10:50:00,
2013-12-24 05:51:00,68.3,67.1,30.12,SSW,209,0.0,0.0,96,0.00,FEW,,0.00,0.0,WeatherDisplay:10.37,2013-12-24 10:51:00,
2013-12-24 05:52:00,68.3,67.1,30.12,SSW,209,0.0,0.0,96,0.00,FEW,,0.00,0.0,WeatherDisplay:10.37,2013-12-24 10:52:00,
2013-12-24 05:54:00,68.3,67.1,30.12,SSW,209,0.0,0.0,96,0.00,FEW,,0.00,0.0,WeatherDisplay:10.37,2013-12-24 10:54:00,
2013-12-24 05:55:00,68.3,67.1,30.12,SSW,209,0.0,0.0,96,0.00,FEW,,0.00,0.0,WeatherDisplay:10.37,2013-12-24 10:55:00,
2013-12-24 05:56:00,68.2,67.0,30.12,SSW,209,0.0,0.0,96,0.00,FEW,,0.00,0.0,WeatherDisplay:10.37,2013-12-24 10:56:00,
2013-12-24 05:57:00,68.2,67.0,30.12,SSW,209,0.0,0.0,96,0.00,FEW,,0.00,0.0,WeatherDisplay:10.37,2013-12-24 10:57:00,
2013-12-24 05:59:00,68.2,67.0,30.12,SSW,209,0.0,0.0,96,0.00,FEW,,0.00,0.0,WeatherDisplay:10.37,2013-12-24 10:59:00,
2013-12-24 06:01:00,68.2,67.0,30.12,SSW,209,0.0,0.0,96,0.00,FEW,,0.00,0.0,WeatherDisplay:10.37,2013-12-24 11:01:00,
2013-12-24 06:02:00,68.2,67.0,30.12,SSW,209,0.0,0.0,96,0.00,OVC,,0.00,0.0,WeatherDisplay:10.37,2013-12-24 11:02:00,
2013-12-24 06:03:00,68.2,67.0,30.12,SSW,209,0.0,0.0,96,0.00,OVC,,0.00,0.0,WeatherDisplay:10.37,2013-12-24 11:03:00,
2013-12-24 06:06:00,68.2,67.0,30.13,SSW,209,0.0,0.0,96,0.00,OVC,,0.00,0.0,WeatherDisplay:10.37,2013-12-24 11:06:00,
2013-12-24 06:07:00,68.1,66.9,30.13,SSW,209,0.0,0.0,96,0.00,OVC,,0.00,0.0,WeatherDisplay:10.37,2013-12-24 11:07:00,
2013-12-24 06:08:00,68.1,66.9,30.13,SSW,209,0.0,0.0,96,0.00,OVC,,0.00,0.0,WeatherDisplay:10.37,2013-12-24 11:08:00,
2013-12-24 06:11:00,68.1,66.9,30.13,SSW,209,0.0,0.0,96,0.00,OVC,,0.00,0.0,WeatherDisplay:10.37,2013-12-24 11:11:00,
2013-12-24 06:12:00,68.1,66.9,30.13,SSW,209,0.0,0.0,96,0.00,OVC,,0.00,0.0,WeatherDisplay:10.37,2013-12-24 11:12:00,
2013-12-24 06:14:00,68.1,66.9,30.13,SSW,209,0.0,0.0,96,0.00,OVC,,0.00,0.0,WeatherDisplay:10.37,2013-12-24 11:14:00,
2013-12-24 06:17:00,68.1,66.9,30.13,SSW,209,0.0,0.0,96,0.00,OVC,,0.00,0.0,WeatherDisplay:10.37,2013-12-24 11:17:00,
2013-12-24 06:18:00,68.1,66.9,30.13,SSW,209,0.0,0.0,96,0.00,OVC,,0.00,0.0,WeatherDisplay:10.37,2013-12-24 11:18:00,
2013-12-24 06:19:00,68.1,66.9,30.13,SSW,209,0.0,0.0,96,0.00,OVC,,0.00,0.0,WeatherDisplay:10.37,2013-12-24 11:19:00,
2013-12-24 06:22:00,68.1,66.9,30.13,SSW,209,0.0,0.0,96,0.00,OVC,,0.00,0.0,WeatherDisplay:10.37,2013-12-24 11:22:00,
2013-12-24 06:23:00,68.1,66.9,30.13,SSW,209,0.0,0.0,96,0.00,OVC,,0.00,0.0,WeatherDisplay:10.37,2013-12-24 11:23:00,
2013-12-24 06:24:00,68.1,66.9,30.13,SSW,209,0.0,0.0,96,0.00,OVC,,0.00,0.0,WeatherDisplay:10.37,2013-12-24 11:24:00,
2013-12-24 06:27:00,68.1,66.9,30.13,SSW,209,0.0,0.0,96,0.00,OVC,,0.00,0.0,WeatherDisplay:10.37,2013-12-24 11:27:00,
2013-12-24 06:28:00,68.1,66.9,30.13,SSW,209,0.0,0.0,96,0.00,OVC,,0.00,0.0,WeatherDisplay:10.37,2013-12-24 11:28:00,
2013-12-24 06:30:00,68.1,66.9,30.13,SSW,209,0.0,0.0,96,0.00,OVC,,0.00,0.0,WeatherDisplay:10.37,2013-12-24 11:30:00,
2013-12-24 06:32:00,68.2,67.0,30.13,SSW,209,0.0,0.0,96,0.00,OVC,,0.00,0.0,WeatherDisplay:10.37,2013-12-24 11:32:00,
2013-12-24 06:33:00,68.2,67.0,30.13,SSW,209,0.0,0.0,96,0.00,OVC,,0.00,0.0,WeatherDisplay:10.37,2013-12-24 11:33:00,
2013-12-24 06:35:00,68.2,67.0,30.14,SSW,213,0.0,0.0,96,0.00,OVC,,0.00,0.0,WeatherDisplay:10.37,2013-12-24 11:35:00,
2013-12-24 06:37:00,68.2,67.0,30.14,SW,222,1.9,3.5,96,0.00,OVC,,0.00,0.0,WeatherDisplay:10.37,2013-12-24 11:37:00,
2013-12-24 06:38:00,68.2,67.0,30.14,SW,225,0.0,3.5,96,0.00,OVC,,0.00,0.0,WeatherDisplay:10.37,2013-12-24 11:38:00,
2013-12-24 06:39:00,68.2,67.0,30.14,SW,225,0.0,0.0,96,0.00,OVC,,0.00,0.0,WeatherDisplay:10.37,2013-12-24 11:39:00,
2013-12-24 06:41:00,68.4,67.5,30.14,SW,225,0.0,0.0,97,0.00,OVC,,0.00,0.0,WeatherDisplay:10.37,2013-12-24 11:41:00,
2013-12-24 06:42:00,68.5,67.6,30.14,SW,225,0.0,0.0,97,0.00,OVC,,0.00,0.0,WeatherDisplay:10.37,2013-12-24 11:42:00,
2013-12-24 06:43:00,68.5,67.6,30.14,SW,225,0.0,0.0,97,0.00,OVC,,0.00,0.0,WeatherDisplay:10.37,2013-12-24 11:43:00,
2013-12-24 06:44:00,68.5,67.6,30.14,SW,225,0.0,0.0,97,0.00,OVC,,0.00,0.0,WeatherDisplay:10.37,2013-12-24 11:44:00,
2013-12-24 06:46:00,68.6,67.7,30.14,SW,225,0.0,0.0,97,0.00,OVC,,0.00,0.0,WeatherDisplay:10.37,2013-12-24 11:46:00,
2013-12-24 06:47:00,68.6,67.7,30.14,SW,225,0.0,0.0,97,0.00,OVC,,0.00,0.0,WeatherDisplay:10.37,2013-12-24 11:47:00,
2013-12-24 06:48:00,68.6,67.7,30.14,SW,225,0.0,0.0,97,0.00,OVC,,0.00,0.0,WeatherDisplay:10.37,2013-12-24 11:48:00,
2013-12-24 06:49:00,68.7,67.8,30.14,SW,225,0.0,0.0,97,0.00,OVC,,0.00,0.0,WeatherDisplay:10.37,2013-12-24 11:49:00,
2013-12-24 06:52:00,68.8,67.9,30.14,SW,225,0.0,0.0,97,0.01,RA,,0.01,0.0,WeatherDisplay:10.37,2013-12-24 11:52:00,
2013-12-24 06:53:00,68.8,67.9,30.15,SW,225,0.0,0.0,97,0.01,RA,,0.01,0.0,WeatherDisplay:10.37,2013-12-24 11:53:00,
2013-12-24 06:54:00,68.8,67.9,30.15,SW,225,0.0,0.0,97,0.01,RA,,0.01,0.0,WeatherDisplay:10.37,2013-12-24 11:54:00,
2013-12-24 06:55:00,68.8,67.9,30.15,SW,225,0.0,0.0,97,0.01,RA,,0.01,0.0,WeatherDisplay:10.37,2013-12-24 11:55:00,
2013-12-24 06:57:00,68.9,68.0,30.15,SW,225,0.0,0.0,97,0.01,RA,,0.01,0.0,WeatherDisplay:10.37,2013-12-24 11:57:00,
2013-12-24 06:58:00,68.9,68.0,30.15,SW,225,0.0,0.0,97,0.01,RA,,0.01,0.0,WeatherDisplay:10.37,2013-12-24 11:58:00,
2013-12-24 06:59:00,68.9,68.0,30.15,SW,225,0.0,0.0,97,0.01,RA,,0.01,0.0,WeatherDisplay:10.37,2013-12-24 11:59:00,
2013-12-24 07:00:00,69.0,68.1,30.15,SW,225,0.0,0.0,97,0.01,OVC,,0.01,0.0,WeatherDisplay:10.37,2013-12-24 12:00:00,
2013-12-24 07:02:00,69.0,68.1,30.15,SW,225,0.0,0.0,97,0.01,BKN,,0.01,0.0,WeatherDisplay:10.37,2013-12-24 12:02:00,
2013-12-24 07:03:00,69.0,68.1,30.15,SW,224,0.0,0.0,97,0.01,BKN,,0.01,0.0,WeatherDisplay:10.37,2013-12-24 12:03:00,
2013-12-24 07:04:00,69.1,68.2,30.15,SW,225,0.0,0.0,97,0.01,BKN,,0.01,0.0,WeatherDisplay:10.37,2013-12-24 12:04:00,
2013-12-24 07:05:00,69.1,68.2,30.15,SW,225,0.0,0.0,97,0.01,BKN,,0.01,0.0,WeatherDisplay:10.37,2013-12-24 12:05:00,
2013-12-24 07:08:00,69.2,68.3,30.15,SW,225,0.0,0.0,97,0.01,BKN,,0.01,0.0,WeatherDisplay:10.37,2013-12-24 12:08:00,
2013-12-24 07:09:00,69.2,68.3,30.15,SW,225,0.0,0.0,97,0.01,BKN,,0.01,0.0,WeatherDisplay:10.37,2013-12-24 12:09:00,
2013-12-24 07:10:00,69.2,68.3,30.15,SW,225,0.0,0.0,97,0.01,BKN,,0.01,0.0,WeatherDisplay:10.37,2013-12-24 12:10:00,
2013-12-24 07:11:00,69.2,68.3,30.15,SW,225,0.0,0.0,97,0.01,BKN,,0.01,0.0,WeatherDisplay:10.37,2013-12-24 12:11:00,
2013-12-24 07:14:00,69.3,68.4,30.16,SW,225,0.0,0.0,97,0.01,BKN,,0.01,0.0,WeatherDisplay:10.37,2013-12-24 12:14:00,
2013-12-24 07:15:00,69.3,68.4,30.16,SW,225,0.0,0.0,97,0.01,BKN,,0.01,0.0,WeatherDisplay:10.37,2013-12-24 12:15:00,
2013-12-24 07:16:00,69.4,68.5,30.16,SW,225,0.0,0.0,97,0.01,BKN,,0.01,5.0,WeatherDisplay:10.37,2013-12-24 12:16:00,
2013-12-24 07:17:00,69.4,68.5,30.16,SW,225,0.0,0.0,97,0.01,BKN,,0.01,5.0,WeatherDisplay:10.37,2013-12-24 12:17:00,
2013-12-24 07:19:00,69.4,68.5,30.15,SW,225,0.0,0.0,97,0.01,BKN,,0.01,7.0,WeatherDisplay:10.37,2013-12-24 12:19:00,
2013-12-24 07:20:00,69.4,68.5,30.15,SW,225,0.0,0.0,97,0.01,BKN,,0.01,7.0,WeatherDisplay:10.37,2013-12-24 12:20:00,
2013-12-24 07:21:00,69.4,68.5,30.15,SW,225,0.0,0.0,97,0.01,BKN,,0.01,9.0,WeatherDisplay:10.37,2013-12-24 12:21:00,
2013-12-24 07:22:00,69.4,68.5,30.15,SW,225,0.1,1.2,97,0.01,BKN,,0.01,9.0,WeatherDisplay:10.37,2013-12-24 12:22:00,
2013-12-24 07:24:00,69.4,68.5,30.15,SW,224,0.0,0.0,97,0.01,BKN,,0.01,11.0,WeatherDisplay:10.37,2013-12-24 12:24:00,
2013-12-24 07:25:00,69.4,68.5,30.15,SW,225,0.0,0.0,97,0.01,BKN,,0.01,12.0,WeatherDisplay:10.37,2013-12-24 12:25:00,
2013-12-24 07:26:00,69.4,68.5,30.15,SW,225,0.0,0.0,97,0.01,BKN,,0.01,11.0,WeatherDisplay:10.37,2013-12-24 12:26:00,
2013-12-24 07:27:00,69.4,68.5,30.16,SW,225,0.0,0.0,97,0.01,BKN,,0.01,9.0,WeatherDisplay:10.37,2013-12-24 12:27:00,
2013-12-24 07:29:00,69.4,68.5,30.16,SW,227,0.1,0.0,97,0.01,BKN,,0.01,9.0,WeatherDisplay:10.37,2013-12-24 12:29:00,
2013-12-24 07:30:00,69.4,68.5,30.16,SW,227,0.1,1.2,97,0.01,BKN,,0.01,7.0,WeatherDisplay:10.37,2013-12-24 12:30:00,
2013-12-24 07:31:00,69.4,68.5,30.16,SW,227,0.0,0.0,97,0.01,BKN,,0.01,9.0,WeatherDisplay:10.37,2013-12-24 12:31:00,
2013-12-24 07:32:00,69.5,68.6,30.16,SW,227,0.0,0.0,97,0.01,BKN,,0.01,7.0,WeatherDisplay:10.37,2013-12-24 12:32:00,
2013-12-24 07:34:00,69.4,68.5,30.16,SW,227,0.0,0.0,97,0.01,BKN,,0.01,9.0,WeatherDisplay:10.37,2013-12-24 12:34:00,
2013-12-24 07:35:00,69.5,68.6,30.16,SW,227,0.0,0.0,97,0.01,BKN,,0.01,7.0,WeatherDisplay:10.37,2013-12-24 12:35:00,
2013-12-24 07:36:00,69.5,68.6,30.16,SW,227,0.0,0.0,97,0.01,BKN,,0.01,9.0,WeatherDisplay:10.37,2013-12-24 12:36:00,
2013-12-24 07:37:00,69.5,68.6,30.16,SW,227,0.0,0.0,97,0.01,BKN,,0.01,9.0,WeatherDisplay:10.37,2013-12-24 12:37:00,
2013-12-24 07:40:00,69.4,68.5,30.16,SW,228,0.0,0.0,97,0.01,BKN,,0.01,9.0,WeatherDisplay:10.37,2013-12-24 12:40:00,
2013-12-24 07:41:00,69.4,68.5,30.16,SW,228,0.0,0.0,97,0.01,BKN,,0.01,9.0,WeatherDisplay:10.37,2013-12-24 12:41:00,
2013-12-24 07:43:00,69.4,68.5,30.16,SW,228,0.0,0.0,97,0.01,BKN,,0.01,12.0,WeatherDisplay:10.37,2013-12-24 12:43:00,
2013-12-24 07:46:00,69.4,68.5,30.16,SW,228,0.0,0.0,97,0.01,BKN,,0.01,16.0,WeatherDisplay:10.37,2013-12-24 12:46:00,
2013-12-24 07:49:00,69.4,68.5,30.16,SW,228,0.0,0.0,97,0.01,BKN,,0.01,19.0,WeatherDisplay:10.37,2013-12-24 12:49:00,
2013-12-24 07:51:00,69.4,68.5,30.16,SW,228,0.0,0.0,97,0.00,BKN,,0.01,23.0,WeatherDisplay:10.37,2013-12-24 12:51:00,
2013-12-24 07:54:00,69.5,68.6,30.17,SW,228,0.0,0.0,97,0.00,BKN,,0.01,30.0,WeatherDisplay:10.37,2013-12-24 12:54:00,
2013-12-24 07:56:00,69.5,68.6,30.16,SW,228,0.0,0.0,97,0.00,BKN,,0.01,39.0,WeatherDisplay:10.37,2013-12-24 12:56:00,
2013-12-24 07:57:00,69.5,68.6,30.16,SW,228,0.0,0.0,97,0.00,BKN,,0.01,33.0,WeatherDisplay:10.37,2013-12-24 12:57:00,
2013-12-24 07:59:00,69.6,68.7,30.16,SW,227,0.0,0.0,97,0.00,BKN,,0.01,46.0,WeatherDisplay:10.37,2013-12-24 12:59:00,
2013-12-24 08:00:00,69.6,68.7,30.16,SW,228,0.0,0.0,97,0.00,BKN,,0.01,46.0,WeatherDisplay:10.37,2013-12-24 13:00:00,
2013-12-24 08:01:00,69.6,68.7,30.17,SW,228,0.0,0.0,97,0.00,BKN,,0.01,51.0,WeatherDisplay:10.37,2013-12-24 13:01:00,
2013-12-24 08:02:00,69.6,68.7,30.17,SW,228,0.0,0.0,97,0.00,OVC,,0.01,40.0,WeatherDisplay:10.37,2013-12-24 13:02:00,
2013-12-24 08:05:00,69.7,68.8,30.17,SW,228,0.0,0.0,97,0.00,OVC,,0.01,42.0,WeatherDisplay:10.37,2013-12-24 13:05:00,
2013-12-24 08:06:00,69.7,68.8,30.17,SW,228,0.0,0.0,97,0.00,OVC,,0.01,35.0,WeatherDisplay:10.37,2013-12-24 13:06:00,
2013-12-24 08:07:00,69.7,68.8,30.17,SW,228,0.0,0.0,97,0.00,OVC,,0.01,32.0,WeatherDisplay:10.37,2013-12-24 13:07:00,
2013-12-24 08:08:00,69.7,68.8,30.17,SW,228,0.0,0.0,97,0.00,OVC,,0.01,32.0,WeatherDisplay:10.37,2013-12-24 13:08:00,
2013-12-24 08:10:00,69.8,68.9,30.17,SW,228,0.0,0.0,97,0.00,OVC,,0.01,30.0,WeatherDisplay:10.37,2013-12-24 13:10:00,
2013-12-24 08:11:00,69.7,68.8,30.17,SW,228,0.0,0.0,97,0.00,OVC,,0.01,25.0,WeatherDisplay:10.37,2013-12-24 13:11:00,
2013-12-24 08:12:00,69.8,68.9,30.17,SW,228,0.0,0.0,97,0.00,OVC,,0.01,19.0,WeatherDisplay:10.37,2013-12-24 13:12:00,
2013-12-24 08:13:00,69.8,68.9,30.17,SW,228,0.0,0.0,97,0.00,OVC,,0.01,19.0,WeatherDisplay:10.37,2013-12-24 13:13:00,
2013-12-24 08:15:00,69.8,68.9,30.17,SW,228,0.0,0.0,97,0.00,OVC,,0.01,18.0,WeatherDisplay:10.37,2013-12-24 13:15:00,
2013-12-24 08:16:00,69.8,68.9,30.17,SW,228,0.0,0.0,97,0.00,OVC,,0.01,16.0,WeatherDisplay:10.37,2013-12-24 13:16:00,
2013-12-24 08:17:00,69.8,68.9,30.17,SW,228,0.0,0.0,97,0.00,OVC,,0.01,14.0,WeatherDisplay:10.37,2013-12-24 13:17:00,
2013-12-24 08:18:00,69.8,68.9,30.17,SW,228,0.0,0.0,97,0.00,OVC,,0.01,12.0,WeatherDisplay:10.37,2013-12-24 13:18:00,
2013-12-24 08:20:00,69.8,68.9,30.17,West,259,0.1,1.2,97,0.00,OVC,,0.01,16.0,WeatherDisplay:10.37,2013-12-24 13:20:00,
2013-12-24 08:21:00,69.8,68.9,30.17,West,259,0.0,0.0,97,0.00,OVC,,0.01,19.0,WeatherDisplay:10.37,2013-12-24 13:21:00,
2013-12-24 08:22:00,69.8,68.9,30.17,WSW,258,0.0,0.0,97,0.00,OVC,,0.01,23.0,WeatherDisplay:10.37,2013-12-24 13:22:00,
2013-12-24 08:23:00,69.8,68.9,30.17,West,260,0.0,0.0,97,0.00,OVC,,0.01,26.0,WeatherDisplay:10.37,2013-12-24 13:23:00,
2013-12-24 08:24:00,69.8,68.9,30.17,West,261,0.0,0.0,97,0.00,OVC,,0.01,25.0,WeatherDisplay:10.37,2013-12-24 13:24:00,
2013-12-24 08:25:00,69.8,68.9,30.17,West,261,0.0,1.2,97,0.00,OVC,,0.01,26.0,WeatherDisplay:10.37,2013-12-24 13:25:00,
2013-12-24 08:26:00,69.8,68.9,30.17,West,261,0.0,0.0,97,0.00,OVC,,0.01,26.0,WeatherDisplay:10.37,2013-12-24 13:26:00,
2013-12-24 08:27:00,69.8,68.9,30.17,West,261,0.0,0.0,97,0.00,OVC,,0.01,28.0,WeatherDisplay:10.37,2013-12-24 13:27:00,
2013-12-24 08:29:00,69.8,68.9,30.17,West,262,0.0,0.0,97,0.00,OVC,,0.01,32.0,WeatherDisplay:10.37,2013-12-24 13:29:00,
2013-12-24 08:31:00,69.8,68.9,30.17,West,265,1.0,3.5,97,0.00,OVC,,0.01,28.0,WeatherDisplay:10.37,2013-12-24 13:31:00,
2013-12-24 08:32:00,69.8,68.9,30.18,West,265,0.0,3.5,97,0.00,OVC,,0.01,33.0,WeatherDisplay:10.37,2013-12-24 13:32:00,
2013-12-24 08:34:00,69.8,68.9,30.17,West,271,0.2,3.0,97,0.00,OVC,,0.01,44.0,WeatherDisplay:10.37,2013-12-24 13:34:00,
2013-12-24 08:35:00,69.7,68.8,30.18,West,276,1.7,3.0,97,0.00,OVC,,0.01,51.0,WeatherDisplay:10.37,2013-12-24 13:35:00,
2013-12-24 08:36:00,69.7,68.8,30.18,West,276,0.1,2.3,97,0.00,OVC,,0.01,60.0,WeatherDisplay:10.37,2013-12-24 13:36:00,
2013-12-24 08:37:00,69.7,68.8,30.17,West,276,0.0,0.0,97,0.00,OVC,,0.01,60.0,WeatherDisplay:10.37,2013-12-24 13:37:00,
2013-12-24 08:39:00,69.8,68.9,30.18,WNW,288,0.0,0.0,97,0.00,OVC,,0.01,51.0,WeatherDisplay:10.37,2013-12-24 13:39:00,
2013-12-24 08:40:00,69.8,68.9,30.18,West,276,3.0,4.6,97,0.00,OVC,,0.01,46.0,WeatherDisplay:10.37,2013-12-24 13:40:00,
2013-12-24 08:42:00,69.8,68.9,30.18,NNW,337,0.2,3.5,97,0.00,OVC,,0.01,42.0,WeatherDisplay:10.37,2013-12-24 13:42:00,
2013-12-24 08:43:00,69.8,68.9,30.18,NNW,332,0.0,0.0,97,0.00,OVC,,0.01,35.0,WeatherDisplay:10.37,2013-12-24 13:43:00,
2013-12-24 08:44:00,69.8,68.9,30.18,NNW,329,0.0,1.2,97,0.00,OVC,,0.01,32.0,WeatherDisplay:10.37,2013-12-24 13:44:00,
2013-12-24 08:46:00,69.8,68.9,30.18,West,264,0.5,0.0,97,0.00,OVC,,0.01,23.0,WeatherDisplay:10.37,2013-12-24 13:46:00,
2013-12-24 08:47:00,69.8,68.9,30.18,West,267,0.6,3.0,97,0.00,OVC,,0.01,25.0,WeatherDisplay:10.37,2013-12-24 13:47:00,
2013-12-24 08:48:00,69.8,68.9,30.18,West,267,0.3,3.5,97,0.00,OVC,,0.01,28.0,WeatherDisplay:10.37,2013-12-24 13:48:00,
2013-12-24 08:49:00,69.8,68.9,30.18,West,267,0.0,0.0,97,0.00,OVC,,0.01,32.0,WeatherDisplay:10.37,2013-12-24 13:49:00,
2013-12-24 08:50:00,69.8,68.9,30.18,West,269,0.1,1.2,97,0.00,OVC,,0.01,46.0,WeatherDisplay:10.37,2013-12-24 13:50:00,
2013-12-24 08:52:00,69.8,68.9,30.18,West,269,0.0,0.0,97,0.00,OVC,,0.01,79.0,WeatherDisplay:10.37,2013-12-24 13:52:00,
2013-12-24 08:53:00,69.8,68.9,30.18,West,271,0.0,0.0,97,0.00,OVC,,0.01,81.0,WeatherDisplay:10.37,2013-12-24 13:53:00,
2013-12-24 08:54:00,69.9,69.0,30.18,West,271,0.0,0.0,97,0.00,OVC,,0.01,76.0,WeatherDisplay:10.37,2013-12-24 13:54:00,
2013-12-24 08:55:00,69.9,69.0,30.18,WNW,302,2.3,4.0,97,0.00,OVC,,0.01,69.0,WeatherDisplay:10.37,2013-12-24 13:55:00,
2013-12-24 08:57:00,69.9,69.0,30.18,WNW,302,0.0,0.0,97,0.00,OVC,,0.01,40.0,WeatherDisplay:10.37,2013-12-24 13:57:00,
2013-12-24 08:58:00,69.9,69.0,30.18,WNW,302,0.1,1.2,97,0.00,OVC,,0.01,40.0,WeatherDisplay:10.37,2013-12-24 13:58:00,
2013-12-24 08:59:00,69.9,69.0,30.18,NW,304,0.0,0.0,97,0.00,OVC,,0.01,18.0,WeatherDisplay:10.37,2013-12-24 13:59:00,
2013-12-24 09:01:00,69.9,69.0,30.19,NE,54,2.2,4.0,97,0.00,OVC,,0.01,14.0,WeatherDisplay:10.37,2013-12-24 14:01:00,
2013-12-24 09:02:00,69.5,68.3,30.19,NNW,348,7.6,11.5,96,0.01,-RA,,0.02,28.0,WeatherDisplay:10.37,2013-12-24 14:02:00,
2013-12-24 09:03:00,69.0,67.2,30.19,NW,312,5.7,12.7,94,0.01,-RA,,0.02,28.0,WeatherDisplay:10.37,2013-12-24 14:03:00,
2013-12-24 09:04:00,68.3,66.5,30.19,NW,317,3.5,11.5,94,0.01,-RA,,0.02,35.0,WeatherDisplay:10.37,2013-12-24 14:04:00,
2013-12-24 09:06:00,67.6,65.8,30.19,NNW,336,4.7,11.5,94,0.01,-RA,,0.02,42.0,WeatherDisplay:10.37,2013-12-24 14:06:00,
2013-12-24 09:07:00,67.3,65.5,30.19,WNW,300,3.8,8.1,94,0.01,-RA,,0.02,44.0,WeatherDisplay:10.37,2013-12-24 14:07:00,
2013-12-24 09:08:00,67.2,65.4,30.19,WNW,302,5.3,8.1,94,0.01,-RA,,0.02,47.0,WeatherDisplay:10.37,2013-12-24 14:08:00,
2013-12-24 09:09:00,67.1,65.3,30.19,NNW,346,6.4,8.1,94,0.01,-RA,,0.02,47.0,WeatherDisplay:10.37,2013-12-24 14:09:00,
2013-12-24 09:10:00,66.9,65.1,30.19,NE,37,3.7,11.5,94,0.01,-RA,,0.02,51.0,WeatherDisplay:10.37,2013-12-24 14:10:00,
2013-12-24 09:12:00,66.7,65.2,30.19,North,360,4.9,8.0,95,0.01,-RA,,0.02,65.0,WeatherDisplay:10.37,2013-12-24 14:12:00,
2013-12-24 09:13:00,66.6,65.1,30.19,NNW,342,2.3,4.6,95,0.01,-RA,,0.02,63.0,WeatherDisplay:10.37,2013-12-24 14:13:00,
2013-12-24 09:14:00,66.5,65.0,30.20,North,355,1.9,3.5,95,0.01,-RA,,0.02,56.0,WeatherDisplay:10.37,2013-12-24 14:14:00,
2013-12-24 09:15:00,66.5,65.0,30.19,NNE,13,2.1,5.8,95,0.01,-RA,,0.02,67.0,WeatherDisplay:10.37,2013-12-24 14:15:00,
2013-12-24 09:17:00,66.4,64.9,30.20,NNE,18,2.4,3.5,95,0.01,-RA,,0.02,63.0,WeatherDisplay:10.37,2013-12-24 14:17:00,
2013-12-24 09:18:00,66.3,64.8,30.20,North,355,3.8,6.9,95,0.01,-RA,,0.02,60.0,WeatherDisplay:10.37,2013-12-24 14:18:00,
2013-12-24 09:19:00,66.3,64.8,30.20,NNE,19,3.3,6.9,95,0.01,-RA,,0.02,53.0,WeatherDisplay:10.37,2013-12-24 14:19:00,
2013-12-24 09:20:00,66.3,64.8,30.20,North,355,2.7,6.9,95,0.01,-RA,,0.02,47.0,WeatherDisplay:10.37,2013-12-24 14:20:00,
2013-12-24 09:22:00,66.2,64.7,30.20,North,10,2.9,4.6,95,0.01,-RA,,0.02,32.0,WeatherDisplay:10.37,2013-12-24 14:22:00,
2013-12-24 09:23:00,66.1,64.6,30.20,North,9,4.1,5.8,95,0.01,-RA,,0.02,32.0,WeatherDisplay:10.37,2013-12-24 14:23:00,
2013-12-24 09:24:00,66.0,64.5,30.20,NNE,18,4.8,10.4,95,0.01,-RA,,0.02,30.0,WeatherDisplay:10.37,2013-12-24 14:24:00,
2013-12-24 09:25:00,66.0,64.5,30.20,North,350,4.9,10.4,95,0.01,-RA,,0.02,33.0,WeatherDisplay:10.37,2013-12-24 14:25:00,
2013-12-24 09:27:00,65.8,64.3,30.20,NW,306,4.9,9.0,95,0.01,-RA,,0.02,40.0,WeatherDisplay:10.37,2013-12-24 14:27:00,
2013-12-24 09:28:00,65.7,64.2,30.21,NW,324,5.5,11.5,95,0.01,-RA,,0.02,46.0,WeatherDisplay:10.37,2013-12-24 14:28:00,
2013-12-24 09:30:00,65.5,64.0,30.21,North,5,7.2,12.7,95,0.01,-RA,,0.02,49.0,WeatherDisplay:10.37,2013-12-24 14:30:00,
2013-12-24 09:33:00,65.0,63.2,30.21,NNE,32,6.0,11.5,94,0.01,-RA,,0.02,58.0,WeatherDisplay:10.37,2013-12-24 14:33:00,
2013-12-24 09:34:00,64.7,62.6,30.21,NE,34,6.0,12.7,93,0.01,-RA,,0.02,58.0,WeatherDisplay:10.37,2013-12-24 14:34:00,
2013-12-24 09:35:00,64.5,62.4,30.21,NNW,329,4.6,11.5,93,0.01,-RA,,0.02,67.0,WeatherDisplay:10.37,2013-12-24 14:35:00,
2013-12-24 09:36:00,64.3,62.2,30.21,North,350,5.3,10.4,93,0.01,-RA,,0.02,67.0,WeatherDisplay:10.37,2013-12-24 14:36:00,
2013-12-24 09:38:00,64.0,62.2,30.22,WNW,298,7.2,11.5,94,0.02,-RA,,0.03,63.0,WeatherDisplay:10.37,2013-12-24 14:38:00,
2013-12-24 09:39:00,63.8,62.0,30.22,North,349,6.5,11.5,94,0.02,-RA,,0.03,54.0,WeatherDisplay:10.37,2013-12-24 14:39:00,
2013-12-24 09:40:00,63.7,61.9,30.22,NW,306,5.0,11.0,94,0.02,-RA,,0.03,44.0,WeatherDisplay:10.37,2013-12-24 14:40:00,
2013-12-24 09:41:00,63.6,61.8,30.22,NW,310,5.3,11.5,94,0.02,-RA,,0.03,42.0,WeatherDisplay:10.37,2013-12-24 14:41:00,
2013-12-24 09:43:00,63.5,61.7,30.22,NW,313,5.0,10.4,94,0.02,-RA,,0.03,42.0,WeatherDisplay:10.37,2013-12-24 14:43:00,
2013-12-24 09:44:00,63.4,61.6,30.22,North,11,3.9,6.9,94,0.02,-RA,,0.03,40.0,WeatherDisplay:10.37,2013-12-24 14:44:00,
2013-12-24 09:45:00,63.3,61.5,30.22,NW,321,5.8,11.0,94,0.02,-RA,,0.03,42.0,WeatherDisplay:10.37,2013-12-24 14:45:00,
2013-12-24 09:46:00,63.3,61.5,30.22,NNW,343,7.1,12.7,94,0.02,-RA,,0.03,42.0,WeatherDisplay:10.37,2013-12-24 14:46:00,
2013-12-24 09:48:00,63.1,61.3,30.22,NNE,23,4.4,8.1,94,0.02,-RA,,0.03,51.0,WeatherDisplay:10.37,2013-12-24 14:48:00,
2013-12-24 09:49:00,63.1,61.3,30.22,North,355,3.3,6.9,94,0.02,-RA,,0.03,53.0,WeatherDisplay:10.37,2013-12-24 14:49:00,
2013-12-24 09:51:00,62.9,61.1,30.22,NNW,342,3.3,8.1,94,0.02,-RA,,0.03,47.0,WeatherDisplay:10.37,2013-12-24 14:51:00,
2013-12-24 09:52:00,62.9,61.4,30.23,NNE,24,2.2,4.6,95,0.02,-RA,,0.03,49.0,WeatherDisplay:10.37,2013-12-24 14:52:00,
2013-12-24 09:53:00,62.9,61.4,30.23,North,349,2.1,5.0,95,0.02,-RA,,0.03,49.0,WeatherDisplay:10.37,2013-12-24 14:53:00,
2013-12-24 09:54:00,62.8,61.3,30.22,North,5,5.9,9.2,95,0.02,-RA,,0.03,49.0,WeatherDisplay:10.37,2013-12-24 14:54:00,
2013-12-24 09:56:00,62.7,60.9,30.23,North,11,3.3,5.8,94,0.03,-RA,,0.04,49.0,WeatherDisplay:10.37,2013-12-24 14:56:00,
2013-12-24 09:57:00,62.6,60.8,30.23,ENE,71,3.3,8.1,94,0.03,-RA,,0.04,49.0,WeatherDisplay:10.37,2013-12-24 14:57:00,
2013-12-24 09:59:00,62.5,60.7,30.23,NW,317,0.6,3.5,94,0.03,-RA,,0.04,49.0,WeatherDisplay:10.37,2013-12-24 14:59:00,
2013-12-24 10:01:00,62.4,60.7,30.23,North,349,3.2,5.8,94,0.02,RA,,0.04,47.0,WeatherDisplay:10.37,2013-12-24 15:01:00,
2013-12-24 10:02:00,62.4,60.7,30.23,NW,306,4.2,8.1,94,0.02,RA,,0.04,46.0,WeatherDisplay:10.37,2013-12-24 15:02:00,
2013-12-24 10:04:00,62.3,60.6,30.23,North,11,2.7,6.0,94,0.02,RA,,0.04,44.0,WeatherDisplay:10.37,2013-12-24 15:04:00,
2013-12-24 10:06:00,62.3,60.6,30.23,NNW,346,1.9,5.0,94,0.02,OVC,,0.04,42.0,WeatherDisplay:10.37,2013-12-24 15:06:00,
2013-12-24 10:07:00,62.3,60.6,30.23,NNW,331,2.4,5.8,94,0.02,OVC,,0.04,42.0,WeatherDisplay:10.37,2013-12-24 15:07:00,
2013-12-24 10:08:00,62.3,60.6,30.23,North,350,2.7,6.9,94,0.02,OVC,,0.04,46.0,WeatherDisplay:10.37,2013-12-24 15:08:00,
2013-12-24 10:09:00,62.2,60.5,30.23,North,360,2.0,5.8,94,0.02,OVC,,0.04,53.0,WeatherDisplay:10.37,2013-12-24 15:09:00,
2013-12-24 10:11:00,62.2,60.5,30.23,North,9,0.8,5.0,94,0.02,OVC,,0.04,54.0,WeatherDisplay:10.37,2013-12-24 15:11:00,
2013-12-24 10:12:00,62.2,60.5,30.23,North,9,0.7,4.6,94,0.02,OVC,,0.04,54.0,WeatherDisplay:10.37,2013-12-24 15:12:00,
2013-12-24 10:13:00,62.2,60.5,30.23,NNE,15,0.0,3.5,94,0.02,OVC,,0.04,54.0,WeatherDisplay:10.37,2013-12-24 15:13:00,
2013-12-24 10:14:00,62.2,60.5,30.23,NNW,348,0.0,1.2,94,0.02,OVC,,0.04,54.0,WeatherDisplay:10.37,2013-12-24 15:14:00,
2013-12-24 10:17:00,62.2,60.5,30.23,North,355,1.6,6.0,94,0.02,OVC,,0.04,56.0,WeatherDisplay:10.37,2013-12-24 15:17:00,
2013-12-24 10:18:00,62.2,60.5,30.22,NNW,334,2.1,5.8,94,0.02,OVC,,0.04,56.0,WeatherDisplay:10.37,2013-12-24 15:18:00,
2013-12-24 10:19:00,62.2,60.5,30.23,NNE,13,2.1,6.9,94,0.02,OVC,,0.04,56.0,WeatherDisplay:10.37,2013-12-24 15:19:00,
2013-12-24 10:20:00,62.2,60.5,30.23,NNW,333,3.6,6.9,94,0.02,OVC,,0.04,58.0,WeatherDisplay:10.37,2013-12-24 15:20:00,
2013-12-24 10:22:00,62.2,60.5,30.22,NNE,19,1.7,5.8,94,0.02,OVC,,0.04,62.0,WeatherDisplay:10.37,2013-12-24 15:22:00,
2013-12-24 10:23:00,62.2,60.5,30.22,NW,312,2.7,6.9,94,0.02,OVC,,0.04,63.0,WeatherDisplay:10.37,2013-12-24 15:23:00,
2013-12-24 10:24:00,62.1,60.4,30.22,NNE,31,3.6,8.1,94,0.02,OVC,,0.04,67.0,WeatherDisplay:10.37,2013-12-24 15:24:00,
2013-12-24 10:25:00,62.2,60.5,30.22,North,355,2.0,5.8,94,0.02,OVC,,0.04,69.0,WeatherDisplay:10.37,2013-12-24 15:25:00,
2013-12-24 10:27:00,62.2,60.5,30.22,NNE,13,0.4,3.5,94,0.02,OVC,,0.04,63.0,WeatherDisplay:10.37,2013-12-24 15:27:00,
2013-12-24 10:28:00,62.2,60.5,30.22,NNE,14,0.3,3.5,94,0.02,OVC,,0.04,63.0,WeatherDisplay:10.37,2013-12-24 15:28:00,
2013-12-24 10:29:00,62.2,60.5,30.22,North,355,1.3,3.5,94,0.02,OVC,,0.04,58.0,WeatherDisplay:10.37,2013-12-24 15:29:00,
2013-12-24 10:30:00,62.2,60.5,30.22,NW,306,0.2,3.5,94,0.02,OVC,,0.04,56.0,WeatherDisplay:10.37,2013-12-24 15:30:00,
2013-12-24 10:32:00,62.2,60.5,30.22,North,5,2.9,6.9,94,0.02,OVC,,0.04,53.0,WeatherDisplay:10.37,2013-12-24 15:32:00,
2013-12-24 10:33:00,62.2,60.8,30.22,North,351,1.6,3.5,95,0.02,OVC,,0.04,53.0,WeatherDisplay:10.37,2013-12-24 15:33:00,
2013-12-24 10:34:00,62.3,60.8,30.22,North,360,0.8,3.5,95,0.02,OVC,,0.04,60.0,WeatherDisplay:10.37,2013-12-24 15:34:00,
2013-12-24 10:35:00,62.2,60.8,30.22,NNW,331,1.5,3.5,95,0.02,OVC,,0.04,63.0,WeatherDisplay:10.37,2013-12-24 15:35:00,
2013-12-24 10:36:00,62.3,60.8,30.22,NW,304,0.0,3.5,95,0.02,OVC,,0.04,74.0,WeatherDisplay:10.37,2013-12-24 15:36:00,
2013-12-24 10:38:00,62.3,60.8,30.22,North,5,0.7,2.0,95,0.01,OVC,,0.04,88.0,WeatherDisplay:10.37,2013-12-24 15:38:00,
2013-12-24 10:39:00,62.3,60.8,30.22,NW,323,3.0,3.5,95,0.01,OVC,,0.04,91.0,WeatherDisplay:10.37,2013-12-24 15:39:00,
2013-12-24 10:40:00,62.2,60.8,30.22,NNW,346,2.3,4.6,95,0.01,OVC,,0.04,91.0,WeatherDisplay:10.37,2013-12-24 15:40:00,
2013-12-24 10:41:00,62.2,60.8,30.22,NNW,334,0.0,3.5,95,0.01,OVC,,0.04,91.0,WeatherDisplay:10.37,2013-12-24 15:41:00,
2013-12-24 10:43:00,62.2,60.8,30.22,North,355,0.0,5.8,95,0.01,OVC,,0.04,81.0,WeatherDisplay:10.37,2013-12-24 15:43:00,
2013-12-24 10:44:00,62.3,60.8,30.22,NNW,348,0.7,1.2,95,0.01,OVC,,0.04,77.0,WeatherDisplay:10.37,2013-12-24 15:44:00,
2013-12-24 10:45:00,62.2,60.8,30.22,North,360,0.7,3.5,95,0.01,OVC,,0.04,77.0,WeatherDisplay:10.37,2013-12-24 15:45:00,
2013-12-24 10:46:00,62.3,60.8,30.22,North,5,0.5,4.6,95,0.01,OVC,,0.04,62.0,WeatherDisplay:10.37,2013-12-24 15:46:00,
2013-12-24 10:49:00,62.3,60.8,30.22,NNW,344,0.4,3.5,95,0.01,OVC,,0.04,56.0,WeatherDisplay:10.37,2013-12-24 15:49:00,
2013-12-24 10:50:00,62.3,60.8,30.22,NW,309,1.4,3.5,95,0.01,OVC,,0.04,56.0,WeatherDisplay:10.37,2013-12-24 15:50:00,
2013-12-24 10:51:00,62.3,60.8,30.22,North,355,0.0,1.2,95,0.01,OVC,,0.04,58.0,WeatherDisplay:10.37,2013-12-24 15:51:00,
2013-12-24 10:55:00,62.3,60.8,30.22,North,355,0.0,0.0,95,0.01,OVC,,0.04,79.0,WeatherDisplay:10.37,2013-12-24 15:55:00,
2013-12-24 10:56:00,62.2,60.8,30.22,NNW,348,0.0,0.0,95,0.00,OVC,,0.04,84.0,WeatherDisplay:10.37,2013-12-24 15:56:00,
2013-12-24 10:57:00,62.3,60.8,30.22,North,5,0.9,3.5,95,0.00,OVC,,0.04,86.0,WeatherDisplay:10.37,2013-12-24 15:57:00,
2013-12-24 11:00:00,62.4,61.2,30.22,NE,53,0.4,3.5,96,0.01,RA,,0.05,105.0,WeatherDisplay:10.37,2013-12-24 16:00:00,
2013-12-24 11:01:00,62.3,61.1,30.22,North,355,0.7,3.5,96,0.01,RA,,0.05,105.0,WeatherDisplay:10.37,2013-12-24 16:01:00,
2013-12-24 11:02:00,62.4,61.2,30.22,NNE,13,1.8,3.5,96,0.01,-RA,,0.05,95.0,WeatherDisplay:10.37,2013-12-24 16:02:00,
2013-12-24 11:05:00,62.5,61.3,30.22,NNE,32,0.5,3.0,96,0.01,-RA,,0.05,107.0,WeatherDisplay:10.37,2013-12-24 16:05:00,
2013-12-24 11:06:00,62.5,61.3,30.21,NNE,30,0.8,1.2,96,0.01,-RA,,0.05,107.0,WeatherDisplay:10.37,2013-12-24 16:06:00,
2013-12-24 11:07:00,62.6,61.4,30.21,NNW,348,1.8,5.8,96,0.01,-RA,,0.05,86.0,WeatherDisplay:10.37,2013-12-24 16:07:00,
2013-12-24 11:10:00,62.5,61.3,30.21,NNW,329,1.1,3.5,96,0.01,-RA,,0.05,90.0,WeatherDisplay:10.37,2013-12-24 16:10:00,
2013-12-24 11:11:00,62.5,61.3,30.21,NNW,331,3.1,3.5,96,0.01,-RA,,0.05,90.0,WeatherDisplay:10.37,2013-12-24 16:11:00,
2013-12-24 11:12:00,62.5,61.3,30.21,North,5,1.3,4.0,96,0.01,-RA,,0.05,109.0,WeatherDisplay:10.37,2013-12-24 16:12:00,
2013-12-24 11:13:00,62.5,61.3,30.21,North,355,2.0,3.5,96,0.01,-RA,,0.05,109.0,WeatherDisplay:10.37,2013-12-24 16:13:00,
2013-12-24 11:16:00,62.7,61.5,30.21,North,5,0.0,0.0,96,0.01,-RA,,0.05,105.0,WeatherDisplay:10.37,2013-12-24 16:16:00,
2013-12-24 11:17:00,62.8,61.6,30.21,NNE,26,3.1,3.1,96,0.01,-RA,,0.05,109.0,WeatherDisplay:10.37,2013-12-24 16:17:00,
2013-12-24 11:18:00,62.8,61.6,30.21,North,355,2.5,8.1,96,0.01,-RA,,0.05,104.0,WeatherDisplay:10.37,2013-12-24 16:18:00,
2013-12-24 11:21:00,62.7,61.5,30.21,West,277,0.0,5.8,96,0.01,-RA,,0.05,105.0,WeatherDisplay:10.37,2013-12-24 16:21:00,
2013-12-24 11:22:00,62.7,61.5,30.21,North,5,0.4,3.5,96,0.01,-RA,,0.05,104.0,WeatherDisplay:10.37,2013-12-24 16:22:00,
2013-12-24 11:23:00,62.7,61.5,30.21,North,5,3.2,4.6,96,0.01,-RA,,0.05,104.0,WeatherDisplay:10.37,2013-12-24 16:23:00,
2013-12-24 11:27:00,62.7,61.5,30.21,NNE,24,0.5,5.8,96,0.01,-RA,,0.05,74.0,WeatherDisplay:10.37,2013-12-24 16:27:00,
2013-12-24 11:28:00,62.7,61.5,30.21,North,355,2.3,4.0,96,0.01,-RA,,0.05,74.0,WeatherDisplay:10.37,2013-12-24 16:28:00,
2013-12-24 11:32:00,62.8,61.3,30.21,North,9,4.0,6.9,95,0.01,-RA,,0.05,67.0,WeatherDisplay:10.37,2013-12-24 16:32:00,
2013-12-24 11:33:00,62.7,61.2,30.21,NE,49,3.5,5.8,95,0.01,-RA,,0.05,63.0,WeatherDisplay:10.37,2013-12-24 16:33:00,
2013-12-24 11:34:00,62.7,61.2,30.20,North,5,3.7,8.1,95,0.01,-RA,,0.05,62.0,WeatherDisplay:10.37,2013-12-24 16:34:00,
2013-12-24 11:37:00,62.7,61.2,30.20,NNE,17,0.1,1.2,95,0.01,-RA,,0.05,65.0,WeatherDisplay:10.37,2013-12-24 16:37:00,
2013-12-24 11:38:00,62.7,61.2,30.20,WNW,300,2.7,5.8,95,0.01,-RA,,0.05,67.0,WeatherDisplay:10.37,2013-12-24 16:38:00,
2013-12-24 11:39:00,62.7,61.2,30.21,NNW,341,0.8,3.5,95,0.01,-RA,,0.05,63.0,WeatherDisplay:10.37,2013-12-24 16:39:00,
2013-12-24 11:42:00,62.8,61.3,30.20,NNW,342,2.6,5.0,95,0.01,-RA,,0.05,53.0,WeatherDisplay:10.37,2013-12-24 16:42:00,
2013-12-24 11:43:00,62.8,61.3,30.20,North,351,2.6,6.9,95,0.01,-RA,,0.05,49.0,WeatherDisplay:10.37,2013-12-24 16:43:00,
2013-12-24 11:45:00,62.8,61.3,30.20,North,10,0.3,3.5,95,0.01,-RA,,0.05,51.0,WeatherDisplay:10.37,2013-12-24 16:45:00,
2013-12-24 11:47:00,62.9,61.4,30.20,North,5,4.1,6.9,95,0.01,-RA,,0.05,51.0,WeatherDisplay:10.37,2013-12-24 16:47:00,
2013-12-24 11:48:00,62.8,61.3,30.20,North,5,2.9,6.9,95,0.01,-RA,,0.05,51.0,WeatherDisplay:10.37,2013-12-24 16:48:00,
2013-12-24 11:49:00,62.8,61.3,30.20,North,5,0.0,6.9,95,0.01,-RA,,0.05,49.0,WeatherDisplay:10.37,2013-12-24 16:49:00,
2013-12-24 11:50:00,62.8,61.3,30.20,NNE,18,1.9,5.8,95,0.01,-RA,,0.05,69.0,WeatherDisplay:10.37,2013-12-24 16:50:00,
2013-12-24 11:52:00,62.8,61.3,30.20,North,5,0.1,0.0,95,0.01,-RA,,0.05,81.0,WeatherDisplay:10.37,2013-12-24 16:52:00,
2013-12-24 11:53:00,62.8,61.3,30.20,North,350,0.4,3.5,95,0.01,-RA,,0.05,81.0,WeatherDisplay:10.37,2013-12-24 16:53:00,
2013-12-24 11:54:00,62.8,61.3,30.20,NW,326,1.5,3.5,95,0.01,-RA,,0.05,69.0,WeatherDisplay:10.37,2013-12-24 16:54:00,
2013-12-24 11:55:00,62.8,61.3,30.20,NNW,337,2.1,5.8,95,0.01,-RA,,0.05,60.0,WeatherDisplay:10.37,2013-12-24 16:55:00,
2013-12-24 11:57:00,62.8,61.3,30.20,North,360,2.0,3.5,95,0.01,-RA,,0.05,104.0,WeatherDisplay:10.37,2013-12-24 16:57:00,
2013-12-24 11:58:00,62.8,61.3,30.20,NNE,19,1.8,3.5,95,0.01,-RA,,0.05,116.0,WeatherDisplay:10.37,2013-12-24 16:58:00,
2013-12-24 11:59:00,62.8,61.3,30.20,NNE,22,2.8,4.0,95,0.01,-RA,,0.05,113.0,WeatherDisplay:10.37,2013-12-24 16:59:00,
2013-12-24 12:00:00,62.8,61.3,30.20,NNE,17,1.8,3.5,95,0.00,-RA,,0.05,142.0,WeatherDisplay:10.37,2013-12-24 17:00:00,
2013-12-24 12:02:00,63.0,61.8,30.20,NW,307,1.4,5.8,96,0.00,OVC,,0.05,141.0,WeatherDisplay:10.37,2013-12-24 17:02:00,
2013-12-24 12:03:00,63.0,61.8,30.20,North,360,2.3,8.0,96,0.00,OVC,,0.05,141.0,WeatherDisplay:10.37,2013-12-24 17:03:00,
2013-12-24 12:04:00,63.0,61.5,30.20,NW,320,2.5,8.1,95,0.00,OVC,,0.05,146.0,WeatherDisplay:10.37,2013-12-24 17:04:00,
2013-12-24 12:06:00,63.0,61.5,30.20,North,5,3.2,5.0,95,0.00,OVC,,0.05,156.0,WeatherDisplay:10.37,2013-12-24 17:06:00,
2013-12-24 12:08:00,63.0,61.5,30.19,North,360,2.4,4.6,95,0.00,OVC,,0.05,155.0,WeatherDisplay:10.37,2013-12-24 17:08:00,
2013-12-24 12:09:00,63.1,61.3,30.19,North,350,2.1,4.6,94,0.00,OVC,,0.05,179.0,WeatherDisplay:10.37,2013-12-24 17:09:00,
2013-12-24 12:10:00,63.2,61.7,30.19,NW,325,1.7,4.0,95,0.00,OVC,,0.05,192.0,WeatherDisplay:10.37,2013-12-24 17:10:00,
2013-12-24 12:12:00,63.3,61.5,30.19,WNW,300,3.5,6.9,94,0.00,OVC,,0.05,200.0,WeatherDisplay:10.37,2013-12-24 17:12:00,
2013-12-24 12:13:00,63.3,61.5,30.19,North,351,3.7,9.2,94,0.00,OVC,,0.05,195.0,WeatherDisplay:10.37,2013-12-24 17:13:00,
2013-12-24 12:14:00,63.4,61.6,30.19,North,9,3.1,5.8,94,0.00,OVC,,0.05,190.0,WeatherDisplay:10.37,2013-12-24 17:14:00,
2013-12-24 12:15:00,63.5,61.7,30.19,North,11,4.4,12.7,94,0.00,OVC,,0.05,188.0,WeatherDisplay:10.37,2013-12-24 17:15:00,
2013-12-24 12:17:00,63.5,61.4,30.19,NNW,329,2.8,4.6,93,0.00,OVC,,0.05,181.0,WeatherDisplay:10.37,2013-12-24 17:17:00,
2013-12-24 12:18:00,63.6,61.5,30.19,NNW,344,3.5,4.6,93,0.00,OVC,,0.05,181.0,WeatherDisplay:10.37,2013-12-24 17:18:00,
2013-12-24 12:19:00,63.6,61.5,30.19,NNE,15,1.1,3.5,93,0.00,OVC,,0.05,155.0,WeatherDisplay:10.37,2013-12-24 17:19:00,
2013-12-24 12:20:00,63.7,61.6,30.19,North,11,0.1,3.5,93,0.00,OVC,,0.05,151.0,WeatherDisplay:10.37,2013-12-24 17:20:00,
2013-12-24 12:22:00,64.0,61.9,30.19,NNE,18,2.6,5.8,93,0.00,OVC,,0.05,132.0,WeatherDisplay:10.37,2013-12-24 17:22:00,
2013-12-24 12:23:00,64.0,61.9,30.19,North,351,1.6,5.0,93,0.00,OVC,,0.05,135.0,WeatherDisplay:10.37,2013-12-24 17:23:00,
2013-12-24 12:24:00,63.9,61.8,30.19,North,355,0.1,5.8,93,0.00,OVC,,0.05,141.0,WeatherDisplay:10.37,2013-12-24 17:24:00,
2013-12-24 12:25:00,64.0,61.9,30.19,North,355,0.2,2.3,93,0.00,OVC,,0.05,128.0,WeatherDisplay:10.37,2013-12-24 17:25:00,
2013-12-24 12:28:00,64.1,62.0,30.19,NW,325,1.0,3.5,93,0.00,OVC,,0.05,120.0,WeatherDisplay:10.37,2013-12-24 17:28:00,
2013-12-24 12:30:00,64.0,61.6,30.19,North,355,4.1,6.9,92,0.00,OVC,,0.05,113.0,WeatherDisplay:10.37,2013-12-24 17:30:00,
2013-12-24 12:31:00,64.0,61.9,30.19,WNW,299,2.1,6.9,93,0.00,OVC,,0.05,113.0,WeatherDisplay:10.37,2013-12-24 17:31:00,
2013-12-24 12:33:00,63.9,61.5,30.19,NW,313,1.4,4.6,92,0.00,OVC,,0.05,105.0,WeatherDisplay:10.37,2013-12-24 17:33:00,
2013-12-24 12:34:00,63.9,61.5,30.19,NNW,328,0.7,4.6,92,0.00,OVC,,0.05,123.0,WeatherDisplay:10.37,2013-12-24 17:34:00,
2013-12-24 12:35:00,64.0,61.9,30.18,North,10,1.7,5.8,93,0.00,OVC,,0.05,127.0,WeatherDisplay:10.37,2013-12-24 17:35:00,
2013-12-24 12:36:00,64.0,61.9,30.18,NNE,16,2.7,5.8,93,0.00,OVC,,0.05,132.0,WeatherDisplay:10.37,2013-12-24 17:36:00,
2013-12-24 12:38:00,63.8,61.4,30.18,North,360,4.8,10.4,92,0.00,OVC,,0.05,151.0,WeatherDisplay:10.37,2013-12-24 17:38:00,
2013-12-24 12:39:00,63.8,61.4,30.18,North,5,5.0,10.4,92,0.00,OVC,,0.05,165.0,WeatherDisplay:10.37,2013-12-24 17:39:00,
2013-12-24 12:40:00,63.8,61.1,30.18,North,360,4.3,6.9,91,0.00,OVC,,0.05,174.0,WeatherDisplay:10.37,2013-12-24 17:40:00,
2013-12-24 12:41:00,63.8,61.4,30.18,WSW,251,4.5,9.2,92,0.00,OVC,,0.05,174.0,WeatherDisplay:10.37,2013-12-24 17:41:00,
2013-12-24 12:43:00,63.9,61.2,30.18,North,355,3.8,6.0,91,0.00,OVC,,0.05,149.0,WeatherDisplay:10.37,2013-12-24 17:43:00,
2013-12-24 12:44:00,63.9,61.2,30.18,North,5,4.8,8.1,91,0.00,OVC,,0.05,148.0,WeatherDisplay:10.37,2013-12-24 17:44:00,
2013-12-24 12:46:00,63.9,61.2,30.18,North,360,3.0,9.2,91,0.00,OVC,,0.05,158.0,WeatherDisplay:10.37,2013-12-24 17:46:00,
2013-12-24 12:48:00,64.1,61.4,30.18,ENE,61,2.2,4.0,91,0.00,OVC,,0.05,142.0,WeatherDisplay:10.37,2013-12-24 17:48:00,
2013-12-24 12:49:00,64.1,61.4,30.18,NW,309,2.5,9.2,91,0.00,OVC,,0.05,132.0,WeatherDisplay:10.37,2013-12-24 17:49:00,
2013-12-24 12:51:00,64.1,61.1,30.18,North,9,4.2,9.2,90,0.00,OVC,,0.05,132.0,WeatherDisplay:10.37,2013-12-24 17:51:00,
2013-12-24 12:53:00,64.1,60.8,30.18,NNW,340,3.8,7.0,89,0.00,OVC,,0.05,160.0,WeatherDisplay:10.37,2013-12-24 17:53:00,
2013-12-24 12:54:00,64.0,60.7,30.18,North,11,4.7,7.0,89,0.00,OVC,,0.05,178.0,WeatherDisplay:10.37,2013-12-24 17:54:00,
2013-12-24 12:56:00,64.1,60.8,30.18,NNE,29,1.7,5.8,89,0.00,OVC,,0.05,193.0,WeatherDisplay:10.37,2013-12-24 17:56:00,
2013-12-24 12:58:00,64.2,60.9,30.18,North,9,0.6,5.8,89,0.00,OVC,,0.05,209.0,WeatherDisplay:10.37,2013-12-24 17:58:00,
2013-12-24 12:59:00,64.3,60.7,30.18,North,9,1.8,5.8,88,0.00,OVC,,0.05,214.0,WeatherDisplay:10.37,2013-12-24 17:59:00,
2013-12-24 13:00:00,64.4,61.1,30.18,North,5,3.9,9.0,89,0.00,OVC,,0.05,221.0,WeatherDisplay:10.37,2013-12-24 18:00:00,
2013-12-24 13:01:00,64.5,60.9,30.18,North,11,4.9,9.2,88,0.00,OVC,,0.05,230.0,WeatherDisplay:10.37,2013-12-24 18:01:00,
2013-12-24 13:02:00,64.6,61.0,30.18,North,351,0.5,8.1,88,0.00,OVC,,0.05,241.0,WeatherDisplay:10.37,2013-12-24 18:02:00,
2013-12-24 13:03:00,64.8,61.2,30.17,NW,317,3.6,6.9,88,0.00,OVC,,0.05,260.0,WeatherDisplay:10.37,2013-12-24 18:03:00,
2013-12-24 13:04:00,64.9,60.9,30.17,North,5,3.8,6.9,87,0.00,OVC,,0.05,260.0,WeatherDisplay:10.37,2013-12-24 18:04:00,
2013-12-24 13:05:00,65.1,61.1,30.17,NE,47,2.2,5.8,87,0.00,OVC,,0.05,292.0,WeatherDisplay:10.37,2013-12-24 18:05:00,
2013-12-24 13:06:00,65.1,61.1,30.17,NNE,15,1.6,5.8,87,0.00,OVC,,0.05,292.0,WeatherDisplay:10.37,2013-12-24 18:06:00,
2013-12-24 13:07:00,65.3,61.3,30.17,NE,36,5.4,9.2,87,0.00,OVC,,0.05,236.0,WeatherDisplay:10.37,2013-12-24 18:07:00,
2013-12-24 13:08:00,65.4,61.1,30.17,WNW,302,3.2,6.9,86,0.00,OVC,,0.05,229.0,WeatherDisplay:10.37,2013-12-24 18:08:00,
2013-12-24 13:09:00,65.5,61.5,30.17,NE,37,2.4,5.8,87,0.00,OVC,,0.05,229.0,WeatherDisplay:10.37,2013-12-24 18:09:00,
2013-12-24 13:10:00,65.6,61.3,30.17,North,5,6.0,11.5,86,0.00,OVC,,0.05,160.0,WeatherDisplay:10.37,2013-12-24 18:10:00,
2013-12-24 13:11:00,65.5,60.9,30.17,North,355,4.1,10.4,85,0.00,OVC,,0.05,160.0,WeatherDisplay:10.37,2013-12-24 18:11:00,
2013-12-24 13:12:00,65.5,60.9,30.17,North,355,5.0,8.1,85,0.00,OVC,,0.05,151.0,WeatherDisplay:10.37,2013-12-24 18:12:00,
2013-12-24 13:14:00,65.4,60.1,30.17,NNE,16,3.1,8.1,83,0.00,OVC,,0.05,169.0,WeatherDisplay:10.37,2013-12-24 18:14:00,
2013-12-24 13:15:00,65.2,59.6,30.18,NNE,15,6.0,6.9,82,0.00,OVC,,0.05,209.0,WeatherDisplay:10.37,2013-12-24 18:15:00,
2013-12-24 13:16:00,65.2,59.6,30.18,North,9,5.9,10.4,82,0.00,OVC,,0.05,209.0,WeatherDisplay:10.37,2013-12-24 18:16:00,
2013-12-24 13:17:00,65.2,59.6,30.17,North,5,0.1,10.4,82,0.00,OVC,,0.05,220.0,WeatherDisplay:10.37,2013-12-24 18:17:00,
2013-12-24 13:18:00,65.2,59.6,30.17,NNE,26,0.1,3.0,82,0.00,OVC,,0.05,229.0,WeatherDisplay:10.37,2013-12-24 18:18:00,
2013-12-24 13:19:00,65.2,58.9,30.18,North,5,7.2,11.5,80,0.00,OVC,,0.05,241.0,WeatherDisplay:10.37,2013-12-24 18:19:00,
2013-12-24 13:21:00,65.2,58.2,30.17,NNE,19,5.3,10.4,78,0.00,OVC,,0.05,243.0,WeatherDisplay:10.37,2013-12-24 18:21:00,
2013-12-24 13:22:00,65.2,58.2,30.17,North,355,4.1,6.9,78,0.00,OVC,,0.05,239.0,WeatherDisplay:10.37,2013-12-24 18:22:00,
2013-12-24 13:23:00,65.2,57.8,30.17,NNE,21,2.5,7.0,77,0.00,OVC,,0.05,237.0,WeatherDisplay:10.37,2013-12-24 18:23:00,
2013-12-24 13:24:00,65.1,57.3,30.17,NW,321,4.7,8.1,76,0.00,OVC,,0.05,246.0,WeatherDisplay:10.37,2013-12-24 18:24:00,
2013-12-24 13:26:00,65.2,57.4,30.17,North,5,3.5,9.2,76,0.00,OVC,,0.05,260.0,WeatherDisplay:10.37,2013-12-24 18:26:00,
2013-12-24 13:27:00,65.2,57.8,30.17,NNE,26,5.2,10.4,77,0.00,OVC,,0.05,262.0,WeatherDisplay:10.37,2013-12-24 18:27:00,
2013-12-24 13:28:00,65.3,58.3,30.17,NNE,24,3.0,8.1,78,0.00,OVC,,0.05,271.0,WeatherDisplay:10.37,2013-12-24 18:28:00,
2013-12-24 13:29:00,65.3,57.9,30.17,NE,46,2.9,8.1,77,0.00,OVC,,0.05,281.0,WeatherDisplay:10.37,2013-12-24 18:29:00,
2013-12-24 13:30:00,65.4,58.0,30.17,NNE,14,0.9,9.2,77,0.00,OVC,,0.05,279.0,WeatherDisplay:10.37,2013-12-24 18:30:00,
2013-12-24 13:31:00,65.5,58.1,30.17,NNW,336,2.2,8.0,77,0.00,OVC,,0.05,267.0,WeatherDisplay:10.37,2013-12-24 18:31:00,
2013-12-24 13:33:00,65.6,58.2,30.17,North,355,0.2,8.1,77,0.00,OVC,,0.05,260.0,WeatherDisplay:10.37,2013-12-24 18:33:00,
2013-12-24 13:34:00,65.6,58.2,30.17,NNE,22,0.9,3.5,77,0.00,OVC,,0.05,260.0,WeatherDisplay:10.37,2013-12-24 18:34:00,
2013-12-24 13:35:00,65.8,58.4,30.17,NNE,22,0.0,4.6,77,0.00,OVC,,0.05,243.0,WeatherDisplay:10.37,2013-12-24 18:35:00,
2013-12-24 13:37:00,65.9,58.8,30.17,North,355,0.1,2.3,78,0.00,OVC,,0.05,229.0,WeatherDisplay:10.37,2013-12-24 18:37:00,
2013-12-24 13:39:00,65.9,58.1,30.17,NW,305,4.3,10.4,76,0.00,OVC,,0.05,225.0,WeatherDisplay:10.37,2013-12-24 18:39:00,
2013-12-24 13:40:00,65.8,58.0,30.17,North,360,5.2,10.4,76,0.00,OVC,,0.05,229.0,WeatherDisplay:10.37,2013-12-24 18:40:00,
2013-12-24 13:41:00,65.8,57.3,30.17,NNE,17,3.1,17.3,74,0.00,OVC,,0.05,236.0,WeatherDisplay:10.37,2013-12-24 18:41:00,
2013-12-24 13:42:00,65.6,57.5,30.17,North,350,4.4,10.4,75,0.00,OVC,,0.05,253.0,WeatherDisplay:10.37,2013-12-24 18:42:00,
2013-12-24 13:44:00,65.5,57.4,30.17,NW,325,1.6,9.2,75,0.00,OVC,,0.05,248.0,WeatherDisplay:10.37,2013-12-24 18:44:00,
2013-12-24 13:45:00,65.6,57.8,30.17,North,9,4.2,6.0,76,0.00,OVC,,0.05,241.0,WeatherDisplay:10.37,2013-12-24 18:45:00,
2013-12-24 13:46:00,65.5,57.7,30.17,NNE,13,3.9,15.0,76,0.00,OVC,,0.05,234.0,WeatherDisplay:10.37,2013-12-24 18:46:00,
2013-12-24 13:48:00,65.6,58.2,30.17,North,355,5.2,13.8,77,0.00,OVC,,0.05,251.0,WeatherDisplay:10.37,2013-12-24 18:48:00,
2013-12-24 13:49:00,65.5,58.1,30.17,North,360,3.8,12.0,77,0.00,OVC,,0.05,274.0,WeatherDisplay:10.37,2013-12-24 18:49:00,
2013-12-24 13:50:00,65.4,58.0,30.17,North,5,2.7,11.5,77,0.00,OVC,,0.05,290.0,WeatherDisplay:10.37,2013-12-24 18:50:00,
2013-12-24 13:51:00,65.4,58.0,30.17,North,5,3.2,10.4,77,0.00,OVC,,0.05,308.0,WeatherDisplay:10.37,2013-12-24 18:51:00,
2013-12-24 13:53:00,65.5,58.1,30.17,NNE,20,1.8,8.1,77,0.00,OVC,,0.05,281.0,WeatherDisplay:10.37,2013-12-24 18:53:00,
2013-12-24 13:54:00,65.6,58.2,30.17,NNE,32,3.3,14.0,77,0.00,OVC,,0.05,260.0,WeatherDisplay:10.37,2013-12-24 18:54:00,
2013-12-24 13:55:00,65.6,57.8,30.17,NNE,15,6.2,13.8,76,0.00,OVC,,0.05,244.0,WeatherDisplay:10.37,2013-12-24 18:55:00,
2013-12-24 13:56:00,65.6,57.8,30.17,NE,55,4.8,11.5,76,0.00,OVC,,0.05,237.0,WeatherDisplay:10.37,2013-12-24 18:56:00,
2013-12-24 13:58:00,65.6,57.8,30.17,North,360,6.0,6.0,76,0.00,OVC,,0.05,225.0,WeatherDisplay:10.37,2013-12-24 18:58:00,
2013-12-24 13:59:00,65.5,57.7,30.17,NNE,17,5.9,15.0,76,0.00,OVC,,0.05,227.0,WeatherDisplay:10.37,2013-12-24 18:59:00,
2013-12-24 14:01:00,65.4,56.9,30.17,NNE,19,3.4,16.1,74,0.00,OVC,,0.05,221.0,WeatherDisplay:10.37,2013-12-24 19:01:00,
2013-12-24 14:03:00,65.3,56.4,30.17,North,355,3.4,8.1,73,0.00,OVC,,0.05,207.0,WeatherDisplay:10.37,2013-12-24 19:03:00,
2013-12-24 14:05:00,65.2,55.9,30.17,North,355,3.4,16.1,72,0.00,OVC,,0.05,197.0,WeatherDisplay:10.37,2013-12-24 19:05:00,
2013-12-24 14:06:00,65.0,55.4,30.17,North,355,5.7,13.8,71,0.00,OVC,,0.05,195.0,WeatherDisplay:10.37,2013-12-24 19:06:00,
2013-12-24 14:07:00,65.0,55.0,30.17,NNW,339,4.0,8.1,70,0.00,OVC,,0.05,197.0,WeatherDisplay:10.37,2013-12-24 19:07:00,
2013-12-24 14:08:00,64.7,53.9,30.17,North,360,5.1,10.4,68,0.00,OVC,,0.05,221.0,WeatherDisplay:10.37,2013-12-24 19:08:00,
2013-12-24 14:10:00,64.6,53.8,30.17,NE,34,2.8,5.8,68,0.00,OVC,,0.05,230.0,WeatherDisplay:10.37,2013-12-24 19:10:00,
2013-12-24 14:11:00,64.5,54.1,30.17,NNE,15,2.7,6.9,69,0.00,OVC,,0.05,227.0,WeatherDisplay:10.37,2013-12-24 19:11:00,
2013-12-24 14:12:00,64.5,53.7,30.17,North,360,2.6,6.9,68,0.00,OVC,,0.05,227.0,WeatherDisplay:10.37,2013-12-24 19:12:00,
2013-12-24 14:13:00,64.5,54.1,30.17,NNW,348,4.7,10.4,69,0.00,OVC,,0.05,239.0,WeatherDisplay:10.37,2013-12-24 19:13:00,
2013-12-24 14:15:00,64.6,54.6,30.17,North,10,0.6,8.1,70,0.00,OVC,,0.05,246.0,WeatherDisplay:10.37,2013-12-24 19:15:00,
2013-12-24 14:16:00,64.6,54.2,30.17,NE,54,2.9,4.6,69,0.00,OVC,,0.05,239.0,WeatherDisplay:10.37,2013-12-24 19:16:00,
2013-12-24 14:17:00,64.6,53.8,30.17,NNW,348,3.2,7.0,68,0.00,OVC,,0.05,232.0,WeatherDisplay:10.37,2013-12-24 19:17:00,
2013-12-24 14:19:00,64.5,53.7,30.17,WNW,300,5.1,13.8,68,0.00,OVC,,0.05,236.0,WeatherDisplay:10.37,2013-12-24 19:19:00,
2013-12-24 14:20:00,64.5,53.7,30.17,North,11,2.1,3.5,68,0.00,OVC,,0.05,241.0,WeatherDisplay:10.37,2013-12-24 19:20:00,
2013-12-24 14:21:00,64.5,54.5,30.17,NNE,28,1.5,4.6,70,0.00,OVC,,0.05,243.0,WeatherDisplay:10.37,2013-12-24 19:21:00,
2013-12-24 14:22:00,64.5,54.1,30.17,NNE,12,1.8,4.6,69,0.00,OVC,,0.05,243.0,WeatherDisplay:10.37,2013-12-24 19:22:00,
2013-12-24 14:23:00,64.5,54.1,30.17,NE,39,4.8,10.4,69,0.00,OVC,,0.05,241.0,WeatherDisplay:10.37,2013-12-24 19:23:00,
2013-12-24 14:24:00,64.5,54.5,30.17,North,9,4.6,8.1,70,0.00,OVC,,0.05,230.0,WeatherDisplay:10.37,2013-12-24 19:24:00,
2013-12-24 14:25:00,64.5,54.5,30.17,North,360,5.4,11.5,70,0.00,OVC,,0.05,223.0,WeatherDisplay:10.37,2013-12-24 19:25:00,
2013-12-24 14:26:00,64.4,54.4,30.17,NE,42,4.1,9.2,70,0.00,OVC,,0.05,214.0,WeatherDisplay:10.37,2013-12-24 19:26:00,
2013-12-24 14:27:00,64.4,54.8,30.17,NE,42,3.3,9.2,71,0.00,OVC,,0.05,214.0,WeatherDisplay:10.37,2013-12-24 19:27:00,
2013-12-24 14:28:00,64.4,55.2,30.17,NNE,28,0.7,9.2,72,0.00,OVC,,0.05,211.0,WeatherDisplay:10.37,2013-12-24 19:28:00,
2013-12-24 14:29:00,64.4,54.8,30.17,North,349,2.3,9.2,71,0.00,OVC,,0.05,200.0,WeatherDisplay:10.37,2013-12-24 19:29:00,
2013-12-24 14:31:00,64.4,54.4,30.17,NNW,334,2.0,6.9,70,0.00,OVC,,0.05,195.0,WeatherDisplay:10.37,2013-12-24 19:31:00,
2013-12-24 14:32:00,64.4,55.2,30.17,NNE,13,4.9,9.0,72,0.00,OVC,,0.05,193.0,WeatherDisplay:10.37,2013-12-24 19:32:00,
2013-12-24 14:33:00,64.3,54.3,30.17,NE,42,4.0,11.5,70,0.00,OVC,,0.05,190.0,WeatherDisplay:10.37,2013-12-24 19:33:00,
2013-12-24 14:35:00,64.3,54.7,30.17,North,10,5.5,12.7,71,0.00,OVC,,0.05,190.0,WeatherDisplay:10.37,2013-12-24 19:35:00,
2013-12-24 14:36:00,64.3,54.3,30.17,NNE,31,5.5,11.5,70,0.00,OVC,,0.05,186.0,WeatherDisplay:10.37,2013-12-24 19:36:00,
2013-12-24 14:37:00,64.3,53.9,30.17,NE,41,4.1,9.2,69,0.00,OVC,,0.05,172.0,WeatherDisplay:10.37,2013-12-24 19:37:00,
2013-12-24 14:38:00,64.2,53.4,30.17,North,355,5.0,9.2,68,0.00,OVC,,0.05,172.0,WeatherDisplay:10.37,2013-12-24 19:38:00,
2013-12-24 14:40:00,64.1,53.3,30.17,NE,52,5.2,11.5,68,0.00,OVC,,0.05,165.0,WeatherDisplay:10.37,2013-12-24 19:40:00,
2013-12-24 14:41:00,64.1,52.9,30.18,NNE,25,4.1,11.5,67,0.00,OVC,,0.05,162.0,WeatherDisplay:10.37,2013-12-24 19:41:00,
2013-12-24 14:42:00,64.0,52.8,30.18,NNW,346,4.4,11.5,67,0.00,OVC,,0.05,165.0,WeatherDisplay:10.37,2013-12-24 19:42:00,
2013-12-24 14:43:00,64.0,52.4,30.18,North,355,4.1,11.5,66,0.00,OVC,,0.05,165.0,WeatherDisplay:10.37,2013-12-24 19:43:00,
2013-12-24 14:44:00,63.9,51.9,30.18,North,10,5.8,11.5,65,0.00,OVC,,0.05,165.0,WeatherDisplay:10.37,2013-12-24 19:44:00,
2013-12-24 14:45:00,63.9,51.9,30.18,North,5,4.4,11.5,65,0.00,OVC,,0.05,167.0,WeatherDisplay:10.37,2013-12-24 19:45:00,
2013-12-24 14:46:00,63.8,51.8,30.18,NE,34,2.7,9.2,65,0.00,OVC,,0.05,172.0,WeatherDisplay:10.37,2013-12-24 19:46:00,
2013-12-24 14:47:00,63.9,52.3,30.18,NE,42,3.0,8.1,66,0.00,OVC,,0.05,181.0,WeatherDisplay:10.37,2013-12-24 19:47:00,
2013-12-24 14:49:00,63.9,52.3,30.18,NNE,19,4.1,5.8,66,0.00,OVC,,0.05,209.0,WeatherDisplay:10.37,2013-12-24 19:49:00,
2013-12-24 14:50:00,64.0,52.0,30.18,NNE,24,1.7,3.5,65,0.00,OVC,,0.05,227.0,WeatherDisplay:10.37,2013-12-24 19:50:00,
2013-12-24 14:51:00,64.0,52.8,30.18,NNW,339,2.5,10.4,67,0.00,OVC,,0.05,230.0,WeatherDisplay:10.37,2013-12-24 19:51:00,
2013-12-24 14:53:00,64.1,52.1,30.18,NW,321,3.2,10.4,65,0.00,OVC,,0.05,234.0,WeatherDisplay:10.37,2013-12-24 19:53:00,
2013-12-24 14:54:00,64.3,52.3,30.18,NNE,28,2.3,8.1,65,0.00,OVC,,0.05,234.0,WeatherDisplay:10.37,2013-12-24 19:54:00,
2013-12-24 14:55:00,64.3,52.3,30.18,NNW,338,2.3,8.1,65,0.00,OVC,,0.05,234.0,WeatherDisplay:10.37,2013-12-24 19:55:00,
2013-12-24 14:56:00,64.3,51.9,30.18,NNW,338,6.6,12.7,64,0.00,OVC,,0.05,241.0,WeatherDisplay:10.37,2013-12-24 19:56:00,
2013-12-24 14:59:00,64.5,52.5,30.18,NNE,27,3.1,5.8,65,0.00,OVC,,0.05,229.0,WeatherDisplay:10.37,2013-12-24 19:59:00,
2013-12-24 15:00:00,64.5,52.5,30.18,NNE,17,3.2,7.0,65,0.00,OVC,,0.05,237.0,WeatherDisplay:10.37,2013-12-24 20:00:00,
2013-12-24 15:01:00,64.6,53.0,30.18,NNE,25,3.9,9.2,66,0.00,OVC,,0.05,239.0,WeatherDisplay:10.37,2013-12-24 20:01:00,
2013-12-24 15:04:00,64.6,52.6,30.18,ENE,57,3.5,9.2,65,0.00,OVC,,0.05,206.0,WeatherDisplay:10.37,2013-12-24 20:04:00,
2013-12-24 15:05:00,64.6,51.7,30.18,NNE,33,6.3,16.1,63,0.00,OVC,,0.05,199.0,WeatherDisplay:10.37,2013-12-24 20:05:00,
2013-12-24 15:06:00,64.5,52.0,30.18,North,355,5.9,12.7,64,0.00,OVC,,0.05,188.0,WeatherDisplay:10.37,2013-12-24 20:06:00,
2013-12-24 15:09:00,64.2,49.6,30.18,NNE,28,5.4,11.5,59,0.00,OVC,,0.05,171.0,WeatherDisplay:10.37,2013-12-24 20:09:00,
2013-12-24 15:10:00,64.1,49.0,30.18,NNE,26,5.0,11.5,58,0.00,OVC,,0.05,171.0,WeatherDisplay:10.37,2013-12-24 20:10:00,
2013-12-24 15:11:00,64.1,49.0,30.18,North,360,4.3,6.0,58,0.00,OVC,,0.05,167.0,WeatherDisplay:10.37,2013-12-24 20:11:00,
2013-12-24 15:12:00,64.0,48.5,30.18,North,360,4.6,4.6,57,0.00,OVC,,0.05,158.0,WeatherDisplay:10.37,2013-12-24 20:12:00,
2013-12-24 15:14:00,64.0,48.5,30.18,North,5,4.0,8.1,57,0.00,OVC,,0.05,141.0,WeatherDisplay:10.37,2013-12-24 20:14:00,
2013-12-24 15:16:00,63.9,48.4,30.18,North,355,5.5,6.9,57,0.00,OVC,,0.05,137.0,WeatherDisplay:10.37,2013-12-24 20:16:00,
2013-12-24 15:17:00,63.9,48.4,30.18,North,5,4.5,15.0,57,0.00,OVC,,0.05,135.0,WeatherDisplay:10.37,2013-12-24 20:17:00,
2013-12-24 15:19:00,63.7,48.2,30.18,North,360,5.8,11.5,57,0.00,OVC,,0.05,130.0,WeatherDisplay:10.37,2013-12-24 20:19:00,
2013-12-24 15:22:00,63.6,48.1,30.18,North,355,5.9,8.1,57,0.00,OVC,,0.05,132.0,WeatherDisplay:10.37,2013-12-24 20:22:00,
2013-12-24 15:24:00,63.5,48.5,30.18,North,5,4.9,6.9,58,0.00,OVC,,0.05,141.0,WeatherDisplay:10.37,2013-12-24 20:24:00,
2013-12-24 15:27:00,63.5,48.5,30.18,NNE,24,2.4,12.7,58,0.00,OVC,,0.05,151.0,WeatherDisplay:10.37,2013-12-24 20:27:00,
2013-12-24 15:28:00,63.5,48.0,30.18,NNW,340,4.3,9.2,57,0.00,OVC,,0.05,169.0,WeatherDisplay:10.37,2013-12-24 20:28:00,
2013-12-24 15:30:00,63.6,48.1,30.18,NNW,331,1.8,4.6,57,0.00,OVC,,0.05,153.0,WeatherDisplay:10.37,2013-12-24 20:30:00,
2013-12-24 15:32:00,63.6,46.1,30.18,NNW,332,5.5,8.1,53,0.00,OVC,,0.05,144.0,WeatherDisplay:10.37,2013-12-24 20:32:00,
2013-12-24 15:33:00,63.6,46.1,30.18,NNE,21,4.9,11.5,53,0.00,OVC,,0.05,141.0,WeatherDisplay:10.37,2013-12-24 20:33:00,
2013-12-24 15:35:00,63.6,45.1,30.18,NNE,22,3.1,11.5,51,0.00,OVC,,0.05,149.0,WeatherDisplay:10.37,2013-12-24 20:35:00,
2013-12-24 15:37:00,63.6,44.1,30.18,NNW,327,3.9,9.2,49,0.00,OVC,,0.05,144.0,WeatherDisplay:10.37,2013-12-24 20:37:00,
2013-12-24 15:38:00,63.6,44.6,30.18,NNW,337,2.8,8.1,50,0.00,OVC,,0.05,135.0,WeatherDisplay:10.37,2013-12-24 20:38:00,
2013-12-24 15:40:00,63.5,44.0,30.18,NNW,346,3.5,13.8,49,0.00,OVC,,0.05,127.0,WeatherDisplay:10.37,2013-12-24 20:40:00,
2013-12-24 15:42:00,63.4,44.4,30.18,North,360,3.1,9.2,50,0.00,OVC,,0.05,127.0,WeatherDisplay:10.37,2013-12-24 20:42:00,
2013-12-24 15:43:00,63.5,44.5,30.18,North,5,0.7,5.8,50,0.00,OVC,,0.05,139.0,WeatherDisplay:10.37,2013-12-24 20:43:00,
2013-12-24 15:45:00,63.5,45.0,30.18,NE,36,3.9,9.2,51,0.00,OVC,,0.05,163.0,WeatherDisplay:10.37,2013-12-24 20:45:00,
2013-12-24 15:46:00,63.5,44.5,30.18,NE,49,5.4,11.5,50,0.00,OVC,,0.05,167.0,WeatherDisplay:10.37,2013-12-24 20:46:00,
2013-12-24 15:47:00,63.5,44.0,30.18,NW,325,4.3,9.2,49,0.00,OVC,,0.05,167.0,WeatherDisplay:10.37,2013-12-24 20:47:00,
2013-12-24 15:48:00,63.6,44.1,30.18,NW,324,2.2,9.2,49,0.00,OVC,,0.05,156.0,WeatherDisplay:10.37,2013-12-24 20:48:00,
2013-12-24 15:50:00,63.6,44.6,30.18,ENE,70,5.6,15.0,50,0.00,OVC,,0.05,153.0,WeatherDisplay:10.37,2013-12-24 20:50:00,
2013-12-24 15:51:00,63.6,44.6,30.18,North,10,2.7,11.5,50,0.00,OVC,,0.05,153.0,WeatherDisplay:10.37,2013-12-24 20:51:00,
2013-12-24 15:53:00,63.7,45.2,30.18,NNW,335,3.7,5.0,51,0.00,OVC,,0.05,139.0,WeatherDisplay:10.37,2013-12-24 20:53:00,
2013-12-24 15:54:00,63.6,44.6,30.18,North,360,4.6,10.4,50,0.00,OVC,,0.05,132.0,WeatherDisplay:10.37,2013-12-24 20:54:00,
2013-12-24 15:55:00,63.6,44.6,30.18,NNE,26,4.8,11.5,50,0.00,OVC,,0.05,120.0,WeatherDisplay:10.37,2013-12-24 20:55:00,
2013-12-24 15:56:00,63.7,44.7,30.18,WNW,290,6.2,9.2,50,0.00,OVC,,0.05,116.0,WeatherDisplay:10.37,2013-12-24 20:56:00,
2013-12-24 15:58:00,63.7,44.7,30.18,NE,43,3.6,10.4,50,0.00,OVC,,0.05,111.0,WeatherDisplay:10.37,2013-12-24 20:58:00,
2013-12-24 15:59:00,63.6,45.1,30.18,North,355,3.9,8.1,51,0.00,OVC,,0.05,111.0,WeatherDisplay:10.37,2013-12-24 20:59:00,
2013-12-24 16:01:00,63.6,45.1,30.18,NNE,30,5.5,5.8,51,0.00,OVC,,0.05,107.0,WeatherDisplay:10.37,2013-12-24 21:01:00,
2013-12-24 16:02:00,63.6,45.1,30.18,WSW,241,5.5,5.8,51,0.00,OVC,,0.05,107.0,WeatherDisplay:10.37,2013-12-24 21:02:00,
2013-12-24 16:03:00,63.6,45.6,30.18,NNW,348,4.4,13.8,52,0.00,OVC,,0.05,100.0,WeatherDisplay:10.37,2013-12-24 21:03:00,
2013-12-24 16:04:00,63.6,45.6,30.18,North,360,1.1,8.0,52,0.00,OVC,,0.05,113.0,WeatherDisplay:10.37,2013-12-24 21:04:00,
2013-12-24 16:07:00,63.6,46.1,30.18,NNE,19,4.4,10.4,53,0.00,OVC,,0.05,114.0,WeatherDisplay:10.37,2013-12-24 21:07:00,
2013-12-24 16:08:00,63.6,46.1,30.18,NNE,13,2.9,11.5,53,0.00,OVC,,0.05,116.0,WeatherDisplay:10.37,2013-12-24 21:08:00,
2013-12-24 16:41:00,62.3,48.2,30.19,North,351,6.3,12.0,60,0.00,OVC,,0.05,74.0,WeatherDisplay:10.37,2013-12-24 21:41:00,
2013-12-24 16:42:00,62.3,48.2,30.19,NNE,15,6.1,6.1,60,0.00,OVC,,0.05,74.0,WeatherDisplay:10.37,2013-12-24 21:42:00,
2013-12-24 16:46:00,62.1,48.9,30.19,NNE,17,6.0,11.5,62,0.00,OVC,,0.05,58.0,WeatherDisplay:10.37,2013-12-24 21:46:00,
2013-12-24 16:47:00,62.1,48.9,30.20,NNE,17,6.4,11.5,62,0.00,OVC,,0.05,58.0,WeatherDisplay:10.37,2013-12-24 21:47:00,
2013-12-24 16:51:00,61.8,49.1,30.19,NNE,22,7.5,10.4,63,0.00,OVC,,0.05,33.0,WeatherDisplay:10.37,2013-12-24 21:51:00,
2013-12-24 16:52:00,61.8,49.1,30.19,NNE,30,6.7,13.8,63,0.00,OVC,,0.05,33.0,WeatherDisplay:10.37,2013-12-24 21:52:00,
2013-12-24 16:57:00,61.5,50.0,30.20,NE,36,1.4,10.4,66,0.00,OVC,,0.05,26.0,WeatherDisplay:10.37,2013-12-24 21:57:00,
2013-12-24 17:02:00,61.2,50.2,30.20,North,350,1.7,6.9,67,0.00,OVC,,0.05,25.0,WeatherDisplay:10.37,2013-12-24 22:02:00,
2013-12-24 17:03:00,61.1,50.5,30.20,NNW,336,3.6,6.9,68,0.00,OVC,,0.05,25.0,WeatherDisplay:10.37,2013-12-24 22:03:00,
2013-12-24 17:07:00,61.1,50.5,30.20,NNE,22,0.9,3.5,68,0.00,OVC,,0.05,21.0,WeatherDisplay:10.37,2013-12-24 22:07:00,
2013-12-24 17:08:00,61.0,50.4,30.20,North,5,0.0,2.3,68,0.00,OVC,,0.05,21.0,WeatherDisplay:10.37,2013-12-24 22:08:00,
2013-12-24 17:12:00,61.0,50.0,30.20,NNE,13,2.7,7.0,67,0.00,OVC,,0.05,19.0,WeatherDisplay:10.37,2013-12-24 22:12:00,
2013-12-24 17:13:00,61.0,50.4,30.20,North,5,5.2,11.5,68,0.00,OVC,,0.05,18.0,WeatherDisplay:10.37,2013-12-24 22:13:00,
2013-12-24 17:14:00,61.0,50.0,30.20,NE,36,6.1,11.5,67,0.00,OVC,,0.05,18.0,WeatherDisplay:10.37,2013-12-24 22:14:00,
2013-12-24 17:17:00,61.0,50.4,30.20,North,11,5.5,10.4,68,0.00,OVC,,0.05,16.0,WeatherDisplay:10.37,2013-12-24 22:17:00,
2013-12-24 17:18:00,61.0,50.4,30.20,NNE,19,4.5,10.4,68,0.00,OVC,,0.05,14.0,WeatherDisplay:10.37,2013-12-24 22:18:00,
2013-12-24 17:21:00,61.0,50.4,30.21,NE,40,4.9,11.5,68,0.00,OVC,,0.05,12.0,WeatherDisplay:10.37,2013-12-24 22:21:00,
2013-12-24 17:22:00,61.0,50.4,30.21,NNE,18,3.7,9.2,68,0.00,OVC,,0.05,12.0,WeatherDisplay:10.37,2013-12-24 22:22:00,
2013-12-24 17:23:00,61.0,50.4,30.20,NNE,21,3.0,9.2,68,0.00,OVC,,0.05,12.0,WeatherDisplay:10.37,2013-12-24 22:23:00,
2013-12-24 17:24:00,61.0,50.8,30.20,NNE,19,0.5,3.5,69,0.00,OVC,,0.05,9.0,WeatherDisplay:10.37,2013-12-24 22:24:00,
2013-12-24 17:27:00,61.0,50.8,30.20,NNE,29,1.9,7.0,69,0.00,OVC,,0.05,7.0,WeatherDisplay:10.37,2013-12-24 22:27:00,
2013-12-24 17:28:00,60.9,50.7,30.20,NNE,30,3.1,9.0,69,0.00,OVC,,0.05,7.0,WeatherDisplay:10.37,2013-12-24 22:28:00,
2013-12-24 17:29:00,60.9,50.7,30.20,NNE,18,3.7,10.4,69,0.00,OVC,,0.05,7.0,WeatherDisplay:10.37,2013-12-24 22:29:00,
2013-12-24 17:30:00,61.0,50.8,30.20,North,11,5.2,11.5,69,0.00,OVC,,0.05,5.0,WeatherDisplay:10.37,2013-12-24 22:30:00,
2013-12-24 17:32:00,61.0,50.8,30.20,NW,325,4.7,11.5,69,0.00,OVC,,0.05,5.0,WeatherDisplay:10.37,2013-12-24 22:32:00,
2013-12-24 17:33:00,60.9,50.7,30.20,North,355,4.7,11.5,69,0.00,OVC,,0.05,5.0,WeatherDisplay:10.37,2013-12-24 22:33:00,
2013-12-24 17:34:00,60.9,50.7,30.20,NNE,13,3.3,6.9,69,0.00,OVC,,0.05,5.0,WeatherDisplay:10.37,2013-12-24 22:34:00,
2013-12-24 17:35:00,60.9,51.0,30.20,NNE,26,1.6,6.9,70,0.00,OVC,,0.05,5.0,WeatherDisplay:10.37,2013-12-24 22:35:00,
2013-12-24 17:37:00,60.9,51.0,30.20,NNW,348,2.4,10.4,70,0.00,OVC,,0.05,0.0,WeatherDisplay:10.37,2013-12-24 22:37:00,
2013-12-24 17:38:00,60.9,51.0,30.20,NNE,22,4.1,10.4,70,0.00,OVC,,0.05,0.0,WeatherDisplay:10.37,2013-12-24 22:38:00,
2013-12-24 17:39:00,60.9,51.0,30.20,North,5,3.8,6.9,70,0.00,OVC,,0.05,0.0,WeatherDisplay:10.37,2013-12-24 22:39:00,
2013-12-24 17:41:00,60.9,51.4,30.20,NNE,13,7.1,13.8,71,0.00,OVC,,0.05,0.0,WeatherDisplay:10.37,2013-12-24 22:41:00,
2013-12-24 17:43:00,60.9,51.4,30.20,SSE,163,1.8,8.1,71,0.00,OVC,,0.05,0.0,WeatherDisplay:10.37,2013-12-24 22:43:00,
2013-12-24 17:44:00,60.9,51.4,30.20,NNW,343,4.2,9.2,71,0.00,OVC,,0.05,0.0,WeatherDisplay:10.37,2013-12-24 22:44:00,
2013-12-24 17:46:00,60.9,51.4,30.20,NNW,331,1.1,9.2,71,0.00,OVC,,0.05,0.0,WeatherDisplay:10.37,2013-12-24 22:46:00,
2013-12-24 17:48:00,60.8,51.7,30.20,North,355,1.4,4.6,72,0.00,OVC,,0.05,0.0,WeatherDisplay:10.37,2013-12-24 22:48:00,
2013-12-24 17:49:00,60.8,51.7,30.20,NNE,18,3.1,8.0,72,0.00,OVC,,0.05,0.0,WeatherDisplay:10.37,2013-12-24 22:49:00,
2013-12-24 17:51:00,60.7,51.6,30.20,NNE,25,0.7,11.5,72,0.00,OVC,,0.05,0.0,WeatherDisplay:10.37,2013-12-24 22:51:00,
2013-12-24 17:53:00,60.7,52.0,30.20,North,5,4.3,11.5,73,0.00,OVC,,0.05,0.0,WeatherDisplay:10.37,2013-12-24 22:53:00,
2013-12-24 17:54:00,60.6,51.9,30.21,NW,312,3.2,10.4,73,0.00,OVC,,0.05,0.0,WeatherDisplay:10.37,2013-12-24 22:54:00,
2013-12-24 17:55:00,60.6,51.9,30.20,ENE,58,3.6,8.1,73,0.00,OVC,,0.05,0.0,WeatherDisplay:10.37,2013-12-24 22:55:00,
2013-12-24 17:56:00,60.5,51.8,30.20,NNE,32,2.2,8.1,73,0.00,OVC,,0.05,0.0,WeatherDisplay:10.37,2013-12-24 22:56:00,
2013-12-24 17:58:00,60.4,51.7,30.20,NNW,345,5.5,6.0,73,0.00,OVC,,0.05,0.0,WeatherDisplay:10.37,2013-12-24 22:58:00,
2013-12-24 17:59:00,60.4,52.1,30.20,North,360,0.6,9.2,74,0.00,OVC,,0.05,0.0,WeatherDisplay:10.37,2013-12-24 22:59:00,
2013-12-24 18:00:00,60.4,52.1,30.20,NNE,12,0.5,9.2,74,0.00,OVC,,0.05,0.0,WeatherDisplay:10.37,2013-12-24 23:00:00,
2013-12-24 18:01:00,60.3,52.0,30.20,North,11,2.4,4.6,74,0.00,CLR,,0.05,0.0,WeatherDisplay:10.37,2013-12-24 23:01:00,
2013-12-24 18:03:00,60.2,52.2,30.20,NNE,15,1.8,4.6,75,0.00,CLR,,0.05,0.0,WeatherDisplay:10.37,2013-12-24 23:03:00,
2013-12-24 18:05:00,60.1,52.1,30.20,NNE,15,0.9,5.0,75,0.00,CLR,,0.05,0.0,WeatherDisplay:10.37,2013-12-24 23:05:00,
2013-12-24 18:06:00,60.1,52.1,30.20,North,360,3.6,6.9,75,0.00,CLR,,0.05,0.0,WeatherDisplay:10.37,2013-12-24 23:06:00,
2013-12-24 18:07:00,60.1,52.1,30.20,North,349,3.7,6.9,75,0.00,CLR,,0.05,0.0,WeatherDisplay:10.37,2013-12-24 23:07:00,
2013-12-24 18:08:00,60.0,52.1,30.20,NNE,13,2.9,6.9,75,0.00,CLR,,0.05,0.0,WeatherDisplay:10.37,2013-12-24 23:08:00,
2013-12-24 18:10:00,59.9,52.0,30.20,NE,36,3.2,11.5,75,0.00,CLR,,0.05,0.0,WeatherDisplay:10.37,2013-12-24 23:10:00,
2013-12-24 18:11:00,59.9,52.0,30.20,North,355,2.7,11.5,75,0.00,CLR,,0.05,0.0,WeatherDisplay:10.37,2013-12-24 23:11:00,
2013-12-24 18:12:00,59.9,52.3,30.20,NNE,28,3.9,4.6,76,0.00,CLR,,0.05,0.0,WeatherDisplay:10.37,2013-12-24 23:12:00,
2013-12-24 18:13:00,59.9,52.3,30.20,NNW,332,2.2,5.8,76,0.00,CLR,,0.05,0.0,WeatherDisplay:10.37,2013-12-24 23:13:00,
2013-12-24 18:15:00,59.9,52.3,30.20,North,5,2.5,9.2,76,0.00,CLR,,0.05,0.0,WeatherDisplay:10.37,2013-12-24 23:15:00,
2013-12-24 18:16:00,59.9,52.3,30.20,North,360,1.9,7.0,76,0.00,CLR,,0.05,0.0,WeatherDisplay:10.37,2013-12-24 23:16:00,
2013-12-24 18:17:00,59.9,52.3,30.20,NNW,328,2.8,5.8,76,0.00,CLR,,0.05,0.0,WeatherDisplay:10.37,2013-12-24 23:17:00,
2013-12-24 18:18:00,59.8,52.2,30.20,North,355,3.4,8.1,76,0.00,CLR,,0.05,0.0,WeatherDisplay:10.37,2013-12-24 23:18:00,
2013-12-24 18:20:00,59.8,52.2,30.20,North,10,4.4,11.5,76,0.00,CLR,,0.05,0.0,WeatherDisplay:10.37,2013-12-24 23:20:00,
2013-12-24 18:21:00,59.8,52.6,30.20,North,10,1.6,11.5,77,0.00,CLR,,0.05,0.0,WeatherDisplay:10.37,2013-12-24 23:21:00,
2013-12-24 18:22:00,59.8,52.6,30.20,NW,325,1.0,4.6,77,0.00,CLR,,0.05,0.0,WeatherDisplay:10.37,2013-12-24 23:22:00,
2013-12-24 18:23:00,59.9,52.7,30.20,North,5,3.0,5.8,77,0.00,CLR,,0.05,0.0,WeatherDisplay:10.37,2013-12-24 23:23:00,
2013-12-24 18:25:00,59.8,52.6,30.20,North,11,2.8,9.2,77,0.00,CLR,,0.05,0.0,WeatherDisplay:10.37,2013-12-24 23:25:00,
2013-12-24 18:26:00,59.8,52.6,30.20,NNE,26,0.0,0.0,77,0.00,CLR,,0.05,0.0,WeatherDisplay:10.37,2013-12-24 23:26:00,
2013-12-24 18:27:00,59.8,52.6,30.20,NNE,26,0.0,0.0,77,0.00,CLR,,0.05,0.0,WeatherDisplay:10.37,2013-12-24 23:27:00,
2013-12-24 18:28:00,59.8,52.6,30.20,North,9,2.4,9.2,77,0.00,CLR,,0.05,0.0,WeatherDisplay:10.37,2013-12-24 23:28:00,
2013-12-24 18:31:00,59.8,52.6,30.20,NNW,342,0.3,3.5,77,0.00,CLR,,0.05,0.0,WeatherDisplay:10.37,2013-12-24 23:31:00,
2013-12-24 18:32:00,59.8,52.6,30.20,NW,304,0.0,1.2,77,0.00,CLR,,0.05,0.0,WeatherDisplay:10.37,2013-12-24 23:32:00,
2013-12-24 18:33:00,59.8,52.6,30.20,NNE,22,2.3,0.0,77,0.00,CLR,,0.05,0.0,WeatherDisplay:10.37,2013-12-24 23:33:00,
2013-12-24 18:36:00,59.8,52.6,30.20,NNE,19,2.2,8.1,77,0.00,CLR,,0.05,0.0,WeatherDisplay:10.37,2013-12-24 23:36:00,
2013-12-24 18:37:00,59.8,52.6,30.21,North,360,3.0,8.1,77,0.00,CLR,,0.05,0.0,WeatherDisplay:10.37,2013-12-24 23:37:00,
2013-12-24 18:38:00,59.8,52.6,30.21,NNE,31,0.9,6.9,77,0.00,CLR,,0.05,0.0,WeatherDisplay:10.37,2013-12-24 23:38:00,
2013-12-24 18:39:00,59.8,52.6,30.21,NNW,347,0.0,0.0,77,0.00,CLR,,0.05,0.0,WeatherDisplay:10.37,2013-12-24 23:39:00,
2013-12-24 18:42:00,59.8,52.6,30.21,North,5,0.4,3.5,77,0.00,CLR,,0.05,0.0,WeatherDisplay:10.37,2013-12-24 23:42:00,
2013-12-24 18:43:00,59.8,52.6,30.21,NNE,28,0.9,0.0,77,0.00,CLR,,0.05,0.0,WeatherDisplay:10.37,2013-12-24 23:43:00,
2013-12-24 18:44:00,59.8,52.6,30.21,NNW,345,0.6,5.8,77,0.00,CLR,,0.05,0.0,WeatherDisplay:10.37,2013-12-24 23:44:00,
2013-12-24 18:47:00,59.7,52.5,30.21,North,5,1.9,5.8,77,0.00,CLR,,0.05,0.0,WeatherDisplay:10.37,2013-12-24 23:47:00,
2013-12-24 18:48:00,59.7,52.5,30.21,NNW,341,2.3,9.0,77,0.00,CLR,,0.05,0.0,WeatherDisplay:10.37,2013-12-24 23:48:00,
2013-12-24 18:49:00,59.7,52.5,30.21,North,5,4.4,5.0,77,0.00,CLR,,0.05,0.0,WeatherDisplay:10.37,2013-12-24 23:49:00,
2013-12-24 18:52:00,59.8,52.6,30.21,North,349,1.5,3.5,77,0.00,CLR,,0.05,0.0,WeatherDisplay:10.37,2013-12-24 23:52:00,
2013-12-24 18:54:00,59.8,52.6,30.21,NNE,33,2.2,3.5,77,0.00,CLR,,0.05,0.0,WeatherDisplay:10.37,2013-12-24 23:54:00,
2013-12-24 18:57:00,59.8,52.6,30.21,NNE,13,2.1,6.9,77,0.00,CLR,,0.05,0.0,WeatherDisplay:10.37,2013-12-24 23:57:00,
2013-12-24 18:59:00,59.8,52.6,30.21,North,360,2.7,4.6,77,0.00,CLR,,0.05,0.0,WeatherDisplay:10.37,2013-12-24 23:59:00,
2013-12-24 19:02:00,59.9,52.7,30.21,NNW,333,1.9,8.1,77,0.00,CLR,,0.05,0.0,WeatherDisplay:10.37,2013-12-25 00:02:00,
2013-12-24 19:03:00,59.9,52.7,30.21,NNE,17,0.8,3.5,77,0.00,CLR,,0.05,0.0,WeatherDisplay:10.37,2013-12-25 00:03:00,
2013-12-24 19:04:00,59.9,52.7,30.21,NNW,340,1.4,4.6,77,0.00,CLR,,0.05,0.0,WeatherDisplay:10.37,2013-12-25 00:04:00,
2013-12-24 19:05:00,59.9,52.7,30.21,North,355,0.8,4.6,77,0.00,CLR,,0.05,0.0,WeatherDisplay:10.37,2013-12-25 00:05:00,
2013-12-24 19:07:00,60.0,52.8,30.21,NNW,344,0.1,3.5,77,0.00,CLR,,0.05,0.0,WeatherDisplay:10.37,2013-12-25 00:07:00,
2013-12-24 19:08:00,60.0,52.8,30.21,North,360,3.7,5.8,77,0.00,CLR,,0.05,0.0,WeatherDisplay:10.37,2013-12-25 00:08:00,
2013-12-24 19:09:00,60.0,52.8,30.21,NNE,26,4.0,8.1,77,0.00,CLR,,0.05,0.0,WeatherDisplay:10.37,2013-12-25 00:09:00,
2013-12-24 19:10:00,59.9,52.7,30.21,NNE,23,1.0,6.9,77,0.00,CLR,,0.05,0.0,WeatherDisplay:10.37,2013-12-25 00:10:00,
2013-12-24 19:11:00,60.0,52.8,30.21,NNW,333,0.4,6.9,77,0.00,CLR,,0.05,0.0,WeatherDisplay:10.37,2013-12-25 00:11:00,
2013-12-24 19:13:00,60.0,52.8,30.21,NNE,22,1.3,6.9,77,0.00,CLR,,0.05,0.0,WeatherDisplay:10.37,2013-12-25 00:13:00,
2013-12-24 19:14:00,59.9,52.7,30.21,North,5,1.1,5.8,77,0.00,CLR,,0.05,0.0,WeatherDisplay:10.37,2013-12-25 00:14:00,
2013-12-24 19:15:00,60.0,52.8,30.21,North,5,0.7,3.5,77,0.00,CLR,,0.05,0.0,WeatherDisplay:10.37,2013-12-25 00:15:00,
2013-12-24 19:16:00,59.9,52.7,30.21,North,355,0.0,0.0,77,0.00,CLR,,0.05,0.0,WeatherDisplay:10.37,2013-12-25 00:16:00,
2013-12-24 19:18:00,59.9,52.7,30.21,North,9,0.7,3.5,77,0.00,CLR,,0.05,0.0,WeatherDisplay:10.37,2013-12-25 00:18:00,
2013-12-24 19:19:00,59.8,52.6,30.21,North,5,0.3,3.5,77,0.00,CLR,,0.05,0.0,WeatherDisplay:10.37,2013-12-25 00:19:00,
2013-12-24 19:20:00,59.8,52.6,30.21,NNE,22,0.0,0.0,77,0.00,CLR,,0.05,0.0,WeatherDisplay:10.37,2013-12-25 00:20:00,
2013-12-24 19:22:00,59.8,52.6,30.21,North,5,1.7,4.6,77,0.00,CLR,,0.05,0.0,WeatherDisplay:10.37,2013-12-25 00:22:00,
2013-12-24 19:23:00,59.8,52.6,30.21,NNW,348,1.5,3.5,77,0.00,CLR,,0.05,0.0,WeatherDisplay:10.37,2013-12-25 00:23:00,
2013-12-24 19:24:00,59.8,52.6,30.21,North,360,1.0,4.6,77,0.00,CLR,,0.05,0.0,WeatherDisplay:10.37,2013-12-25 00:24:00,
2013-12-24 19:25:00,59.7,52.5,30.21,NNW,343,0.0,0.0,77,0.00,CLR,,0.05,0.0,WeatherDisplay:10.37,2013-12-25 00:25:00,
2013-12-24 19:26:00,59.7,52.5,30.21,NNW,342,0.0,0.0,77,0.00,CLR,,0.05,0.0,WeatherDisplay:10.37,2013-12-25 00:26:00,
2013-12-24 19:27:00,59.6,52.4,30.21,NNW,333,0.0,0.0,77,0.00,CLR,,0.05,0.0,WeatherDisplay:10.37,2013-12-25 00:27:00,
2013-12-24 19:28:00,59.6,52.4,30.21,NW,323,0.0,0.0,77,0.00,CLR,,0.05,0.0,WeatherDisplay:10.37,2013-12-25 00:28:00,
2013-12-24 19:29:00,59.6,52.4,30.21,NW,323,0.0,0.0,77,0.00,CLR,,0.05,0.0,WeatherDisplay:10.37,2013-12-25 00:29:00,
2013-12-24 19:31:00,59.4,52.5,30.21,NNW,333,0.0,0.0,78,0.00,CLR,,0.05,0.0,WeatherDisplay:10.37,2013-12-25 00:31:00,
2013-12-24 19:32:00,59.4,52.5,30.21,NNW,331,0.0,0.0,78,0.00,CLR,,0.05,0.0,WeatherDisplay:10.37,2013-12-25 00:32:00,
2013-12-24 19:34:00,59.3,52.4,30.21,NNW,329,0.0,0.0,78,0.00,CLR,,0.05,0.0,WeatherDisplay:10.37,2013-12-25 00:34:00,
2013-12-24 19:36:00,59.1,52.2,30.21,NNW,338,0.0,0.0,78,0.00,CLR,,0.05,0.0,WeatherDisplay:10.37,2013-12-25 00:36:00,
2013-12-24 19:38:00,59.0,52.1,30.21,NNW,338,0.0,0.0,78,0.00,CLR,,0.05,0.0,WeatherDisplay:10.37,2013-12-25 00:38:00,
2013-12-24 19:39:00,58.9,52.4,30.21,NNW,338,0.0,0.0,79,0.00,CLR,,0.05,0.0,WeatherDisplay:10.37,2013-12-25 00:39:00,
2013-12-24 19:40:00,58.9,52.4,30.21,NNW,338,0.0,0.0,79,0.00,CLR,,0.05,0.0,WeatherDisplay:10.37,2013-12-25 00:40:00,
2013-12-24 19:42:00,58.8,52.3,30.21,NNW,332,0.0,0.0,79,0.00,CLR,,0.05,0.0,WeatherDisplay:10.37,2013-12-25 00:42:00,
2013-12-24 19:43:00,58.7,52.2,30.22,NNW,330,0.0,0.0,79,0.00,CLR,,0.05,0.0,WeatherDisplay:10.37,2013-12-25 00:43:00,
2013-12-24 19:44:00,58.6,52.1,30.22,NNW,331,0.0,0.0,79,0.00,CLR,,0.05,0.0,WeatherDisplay:10.37,2013-12-25 00:44:00,
2013-12-24 19:45:00,58.6,52.1,30.22,NNW,331,0.0,0.0,79,0.00,CLR,,0.05,0.0,WeatherDisplay:10.37,2013-12-25 00:45:00,
2013-12-24 19:47:00,58.5,52.4,30.22,NW,326,0.0,0.0,80,0.00,CLR,,0.05,0.0,WeatherDisplay:10.37,2013-12-25 00:47:00,
2013-12-24 19:48:00,58.4,52.3,30.22,NW,325,0.0,0.0,80,0.00,CLR,,0.05,0.0,WeatherDisplay:10.37,2013-12-25 00:48:00,
2013-12-24 19:49:00,58.4,52.3,30.22,NW,325,0.0,0.0,80,0.00,CLR,,0.05,0.0,WeatherDisplay:10.37,2013-12-25 00:49:00,
2013-12-24 19:50:00,58.3,52.2,30.22,NW,325,0.0,0.0,80,0.00,CLR,,0.05,0.0,WeatherDisplay:10.37,2013-12-25 00:50:00,
2013-12-24 19:52:00,58.2,52.1,30.22,NNW,327,0.0,0.0,80,0.00,CLR,,0.05,0.0,WeatherDisplay:10.37,2013-12-25 00:52:00,
2013-12-24 19:54:00,58.2,52.4,30.22,NNW,327,0.0,0.0,81,0.00,CLR,,0.05,0.0,WeatherDisplay:10.37,2013-12-25 00:54:00,
2013-12-24 19:55:00,58.1,52.3,30.22,NW,325,0.0,0.0,81,0.00,CLR,,0.05,0.0,WeatherDisplay:10.37,2013-12-25 00:55:00,
2013-12-24 19:56:00,58.1,52.0,30.22,NW,319,0.5,4.0,80,0.00,CLR,,0.05,0.0,WeatherDisplay:10.37,2013-12-25 00:56:00,
2013-12-24 19:58:00,57.9,52.1,30.22,NW,319,0.0,0.0,81,0.00,CLR,,0.05,0.0,WeatherDisplay:10.37,2013-12-25 00:58:00,
2013-12-24 19:59:00,57.9,52.1,30.22,NW,319,0.0,0.0,81,0.00,CLR,,0.05,0.0,WeatherDisplay:10.37,2013-12-25 00:59:00,
2013-12-24 20:00:00,57.8,52.0,30.22,NW,320,0.0,0.0,81,0.00,CLR,,0.05,0.0,WeatherDisplay:10.37,2013-12-25 01:00:00,
2013-12-24 20:01:00,57.8,52.0,30.22,NW,320,0.0,0.0,81,0.00,CLR,,0.05,0.0,WeatherDisplay:10.37,2013-12-25 01:01:00,
2013-12-24 20:04:00,57.7,51.9,30.22,NW,320,0.4,2.3,81,0.00,CLR,,0.05,0.0,WeatherDisplay:10.37,2013-12-25 01:04:00,
2013-12-24 20:05:00,57.7,51.9,30.22,NW,315,0.8,3.5,81,0.00,CLR,,0.05,0.0,WeatherDisplay:10.37,2013-12-25 01:05:00,
2013-12-24 20:06:00,57.6,51.8,30.22,NW,315,0.0,2.3,81,0.00,CLR,,0.05,0.0,WeatherDisplay:10.37,2013-12-25 01:06:00,
2013-12-24 20:07:00,57.6,51.8,30.22,NW,317,0.0,0.0,81,0.00,CLR,,0.05,0.0,WeatherDisplay:10.37,2013-12-25 01:07:00,
2013-12-24 20:09:00,57.5,51.7,30.22,NW,319,0.0,0.0,81,0.00,CLR,,0.05,0.0,WeatherDisplay:10.37,2013-12-25 01:09:00,
2013-12-24 20:10:00,57.5,51.7,30.22,NW,319,0.0,0.0,81,0.00,CLR,,0.05,0.0,WeatherDisplay:10.37,2013-12-25 01:10:00,
2013-12-24 20:11:00,57.5,51.7,30.22,NNW,327,0.0,0.0,81,0.00,CLR,,0.05,0.0,WeatherDisplay:10.37,2013-12-25 01:11:00,
2013-12-24 20:12:00,57.5,51.7,30.22,NNW,327,0.0,0.0,81,0.00,CLR,,0.05,0.0,WeatherDisplay:10.37,2013-12-25 01:12:00,
2013-12-24 20:14:00,57.4,51.6,30.22,WNW,302,0.0,2.3,81,0.00,CLR,,0.05,0.0,WeatherDisplay:10.37,2013-12-25 01:14:00,
2013-12-24 20:15:00,57.4,51.6,30.22,WNW,302,0.0,0.0,81,0.00,CLR,,0.05,0.0,WeatherDisplay:10.37,2013-12-25 01:15:00,
2013-12-24 20:16:00,57.3,51.5,30.22,WNW,301,0.0,0.0,81,0.00,CLR,,0.05,0.0,WeatherDisplay:10.37,2013-12-25 01:16:00,
2013-12-24 20:17:00,57.3,51.5,30.22,NW,304,0.0,0.0,81,0.00,CLR,,0.05,0.0,WeatherDisplay:10.37,2013-12-25 01:17:00,
2013-12-24 20:20:00,57.2,51.4,30.22,NW,304,0.0,0.0,81,0.00,CLR,,0.05,0.0,WeatherDisplay:10.37,2013-12-25 01:20:00,
2013-12-24 20:21:00,57.2,51.4,30.22,NW,320,0.0,0.0,81,0.00,CLR,,0.05,0.0,WeatherDisplay:10.37,2013-12-25 01:21:00,
2013-12-24 20:23:00,57.2,51.4,30.22,NW,320,0.0,0.0,81,0.00,CLR,,0.05,0.0,WeatherDisplay:10.37,2013-12-25 01:23:00,
2013-12-24 20:25:00,57.2,51.4,30.22,NW,320,0.0,0.0,81,0.00,CLR,,0.05,0.0,WeatherDisplay:10.37,2013-12-25 01:25:00,
2013-12-24 20:26:00,57.2,51.4,30.22,NW,320,0.0,0.0,81,0.00,CLR,,0.05,0.0,WeatherDisplay:10.37,2013-12-25 01:26:00,
2013-12-24 20:27:00,57.1,51.7,30.22,NW,319,0.0,0.0,82,0.00,CLR,,0.05,0.0,WeatherDisplay:10.37,2013-12-25 01:27:00,
2013-12-24 20:28:00,57.1,51.7,30.22,NW,319,0.0,0.0,82,0.00,CLR,,0.05,0.0,WeatherDisplay:10.37,2013-12-25 01:28:00,
2013-12-24 20:30:00,57.1,51.7,30.22,NW,319,0.0,0.0,82,0.00,CLR,,0.05,0.0,WeatherDisplay:10.37,2013-12-25 01:30:00,
2013-12-24 20:31:00,57.1,51.7,30.22,NW,320,0.0,0.0,82,0.00,CLR,,0.05,0.0,WeatherDisplay:10.37,2013-12-25 01:31:00,
2013-12-24 20:33:00,57.0,51.6,30.22,NW,320,0.0,0.0,82,0.00,CLR,,0.05,0.0,WeatherDisplay:10.37,2013-12-25 01:33:00,
2013-12-24 20:34:00,57.0,51.6,30.22,NW,320,0.0,0.0,82,0.00,CLR,,0.05,0.0,WeatherDisplay:10.37,2013-12-25 01:34:00,
2013-12-24 20:35:00,57.0,51.6,30.22,NW,320,0.0,0.0,82,0.00,CLR,,0.05,0.0,WeatherDisplay:10.37,2013-12-25 01:35:00,
2013-12-24 20:36:00,57.0,51.6,30.22,NW,321,0.0,0.0,82,0.00,CLR,,0.05,0.0,WeatherDisplay:10.37,2013-12-25 01:36:00,
2013-12-24 20:37:00,57.0,51.6,30.22,NW,320,0.0,0.0,82,0.00,CLR,,0.05,0.0,WeatherDisplay:10.37,2013-12-25 01:37:00,
2013-12-24 20:38:00,56.9,51.5,30.22,NW,322,0.0,0.0,82,0.00,CLR,,0.05,0.0,WeatherDisplay:10.37,2013-12-25 01:38:00,
2013-12-24 20:39:00,56.9,51.5,30.22,NW,309,0.0,0.0,82,0.00,CLR,,0.05,0.0,WeatherDisplay:10.37,2013-12-25 01:39:00,
2013-12-24 20:40:00,56.9,51.5,30.22,NW,311,0.0,0.0,82,0.00,CLR,,0.05,0.0,WeatherDisplay:10.37,2013-12-25 01:40:00,
2013-12-24 20:41:00,56.9,51.5,30.22,NW,311,0.0,0.0,82,0.00,CLR,,0.05,0.0,WeatherDisplay:10.37,2013-12-25 01:41:00,
2013-12-24 20:42:00,56.9,51.5,30.22,NW,311,0.0,0.0,82,0.00,CLR,,0.05,0.0,WeatherDisplay:10.37,2013-12-25 01:42:00,
2013-12-24 20:43:00,56.8,51.4,30.22,NW,311,0.0,0.0,82,0.00,CLR,,0.05,0.0,WeatherDisplay:10.37,2013-12-25 01:43:00,
2013-12-24 20:44:00,56.8,51.4,30.22,NW,311,0.0,0.0,82,0.00,CLR,,0.05,0.0,WeatherDisplay:10.37,2013-12-25 01:44:00,
2013-12-24 20:45:00,56.8,51.4,30.22,NW,311,0.0,0.0,82,0.00,CLR,,0.05,0.0,WeatherDisplay:10.37,2013-12-25 01:45:00,
2013-12-24 20:47:00,56.8,51.4,30.22,NW,311,0.0,0.0,82,0.00,CLR,,0.05,0.0,WeatherDisplay:10.37,2013-12-25 01:47:00,
2013-12-24 20:48:00,56.8,51.4,30.22,NW,311,0.1,0.0,82,0.00,CLR,,0.05,0.0,WeatherDisplay:10.37,2013-12-25 01:48:00,
2013-12-24 20:49:00,56.8,51.4,30.22,NW,311,0.0,1.2,82,0.00,CLR,,0.05,0.0,WeatherDisplay:10.37,2013-12-25 01:49:00,
2013-12-24 20:50:00,56.8,51.4,30.22,NW,313,0.0,0.0,82,0.00,CLR,,0.05,0.0,WeatherDisplay:10.37,2013-12-25 01:50:00,
2013-12-24 20:52:00,56.8,51.4,30.22,NW,317,0.8,3.5,82,0.00,CLR,,0.05,0.0,WeatherDisplay:10.37,2013-12-25 01:52:00,
2013-12-24 20:53:00,56.8,51.4,30.22,NW,319,0.0,3.5,82,0.00,CLR,,0.05,0.0,WeatherDisplay:10.37,2013-12-25 01:53:00,
2013-12-24 20:55:00,56.8,51.4,30.22,NE,45,0.0,1.0,82,0.00,CLR,,0.05,0.0,WeatherDisplay:10.37,2013-12-25 01:55:00,
2013-12-24 20:57:00,56.8,51.4,30.22,NNW,333,0.0,0.0,82,0.00,CLR,,0.05,0.0,WeatherDisplay:10.37,2013-12-25 01:57:00,
2013-12-24 20:58:00,56.8,51.4,30.22,NNW,334,0.0,0.0,82,0.00,CLR,,0.05,0.0,WeatherDisplay:10.37,2013-12-25 01:58:00,
2013-12-24 20:59:00,56.8,51.4,30.22,NNW,334,0.0,0.0,82,0.00,CLR,,0.05,0.0,WeatherDisplay:10.37,2013-12-25 01:59:00,
2013-12-24 21:00:00,56.8,51.4,30.22,NNW,332,0.0,0.0,82,0.00,CLR,,0.05,0.0,WeatherDisplay:10.37,2013-12-25 02:00:00,
2013-12-24 21:01:00,56.8,51.4,30.22,NNW,332,0.0,0.0,82,0.00,CLR,,0.05,0.0,WeatherDisplay:10.37,2013-12-25 02:01:00,
2013-12-24 21:02:00,56.8,51.4,30.22,NNW,332,0.0,0.0,82,0.00,CLR,,0.05,0.0,WeatherDisplay:10.37,2013-12-25 02:02:00,
2013-12-24 21:03:00,56.8,51.4,30.22,NNW,327,0.0,0.0,82,0.00,CLR,,0.05,0.0,WeatherDisplay:10.37,2013-12-25 02:03:00,
2013-12-24 21:04:00,56.8,51.4,30.22,NNW,327,0.0,0.0,82,0.00,CLR,,0.05,0.0,WeatherDisplay:10.37,2013-12-25 02:04:00,
2013-12-24 21:06:00,56.8,51.4,30.22,NW,321,0.0,0.0,82,0.00,CLR,,0.05,0.0,WeatherDisplay:10.37,2013-12-25 02:06:00,
2013-12-24 21:07:00,56.8,51.4,30.22,NW,321,0.0,0.0,82,0.00,CLR,,0.05,0.0,WeatherDisplay:10.37,2013-12-25 02:07:00,
2013-12-24 21:08:00,56.8,51.4,30.22,NW,321,0.0,0.0,82,0.00,CLR,,0.05,0.0,WeatherDisplay:10.37,2013-12-25 02:08:00,
2013-12-24 21:10:00,56.8,51.0,30.22,NW,322,0.0,0.0,81,0.00,CLR,,0.05,0.0,WeatherDisplay:10.37,2013-12-25 02:10:00,
2013-12-24 21:11:00,56.7,51.3,30.22,NW,321,0.0,0.0,82,0.00,CLR,,0.05,0.0,WeatherDisplay:10.37,2013-12-25 02:11:00,
2013-12-24 21:12:00,56.7,50.9,30.22,NW,322,0.0,0.0,81,0.00,CLR,,0.05,0.0,WeatherDisplay:10.37,2013-12-25 02:12:00,
2013-12-24 21:13:00,56.7,50.9,30.22,NW,322,0.0,0.0,81,0.00,CLR,,0.05,0.0,WeatherDisplay:10.37,2013-12-25 02:13:00,
2013-12-24 21:16:00,56.7,51.3,30.22,NW,323,0.0,0.0,82,0.00,CLR,,0.05,0.0,WeatherDisplay:10.37,2013-12-25 02:16:00,
2013-12-24 21:17:00,56.6,51.2,30.22,NW,323,0.0,0.0,82,0.00,CLR,,0.05,0.0,WeatherDisplay:10.37,2013-12-25 02:17:00,
2013-12-24 21:18:00,56.6,51.2,30.22,NW,323,0.0,0.0,82,0.00,CLR,,0.05,0.0,WeatherDisplay:10.37,2013-12-25 02:18:00,
2013-12-24 21:19:00,56.6,51.2,30.22,NW,322,0.0,0.0,82,0.00,CLR,,0.05,0.0,WeatherDisplay:10.37,2013-12-25 02:19:00,
2013-12-24 21:21:00,56.6,51.2,30.22,NW,320,0.0,0.0,82,0.00,CLR,,0.05,0.0,WeatherDisplay:10.37,2013-12-25 02:21:00,
2013-12-24 21:22:00,56.6,51.2,30.22,NW,320,0.0,0.0,82,0.00,CLR,,0.05,0.0,WeatherDisplay:10.37,2013-12-25 02:22:00,
2013-12-24 21:23:00,56.6,51.2,30.22,NW,320,0.0,0.0,82,0.00,CLR,,0.05,0.0,WeatherDisplay:10.37,2013-12-25 02:23:00,
2013-12-24 21:24:00,56.6,51.2,30.22,NW,320,0.0,0.0,82,0.00,CLR,,0.05,0.0,WeatherDisplay:10.37,2013-12-25 02:24:00,
2013-12-24 21:26:00,56.5,51.1,30.22,NW,319,0.0,0.0,82,0.00,CLR,,0.05,0.0,WeatherDisplay:10.37,2013-12-25 02:26:00,
2013-12-24 21:27:00,56.5,51.1,30.22,NW,319,0.0,0.0,82,0.00,CLR,,0.05,0.0,WeatherDisplay:10.37,2013-12-25 02:27:00,
2013-12-24 21:28:00,56.5,51.1,30.22,NW,315,0.0,0.0,82,0.00,CLR,,0.05,0.0,WeatherDisplay:10.37,2013-12-25 02:28:00,
2013-12-24 21:29:00,56.5,51.1,30.22,NW,317,0.0,0.0,82,0.00,CLR,,0.05,0.0,WeatherDisplay:10.37,2013-12-25 02:29:00,
2013-12-24 21:31:00,56.4,51.0,30.22,NW,324,0.0,0.0,82,0.00,CLR,,0.05,0.0,WeatherDisplay:10.37,2013-12-25 02:31:00,
2013-12-24 21:32:00,56.4,51.0,30.22,NW,325,0.0,0.0,82,0.00,CLR,,0.05,0.0,WeatherDisplay:10.37,2013-12-25 02:32:00,
2013-12-24 21:34:00,56.4,51.0,30.22,NW,319,0.2,3.0,82,0.00,CLR,,0.05,0.0,WeatherDisplay:10.37,2013-12-25 02:34:00,
2013-12-24 21:36:00,56.5,51.1,30.22,NW,319,0.0,0.0,82,0.00,CLR,,0.05,0.0,WeatherDisplay:10.37,2013-12-25 02:36:00,
2013-12-24 21:37:00,56.5,51.1,30.22,NW,319,0.0,0.0,82,0.00,CLR,,0.05,0.0,WeatherDisplay:10.37,2013-12-25 02:37:00,
2013-12-24 21:39:00,56.4,51.0,30.22,NW,319,0.0,0.0,82,0.00,CLR,,0.05,0.0,WeatherDisplay:10.37,2013-12-25 02:39:00,
2013-12-24 21:40:00,56.4,51.0,30.22,NW,319,0.0,0.0,82,0.00,CLR,,0.05,0.0,WeatherDisplay:10.37,2013-12-25 02:40:00,
2013-12-24 21:42:00,56.4,51.0,30.22,NW,319,0.0,0.0,82,0.00,CLR,,0.05,0.0,WeatherDisplay:10.37,2013-12-25 02:42:00,
2013-12-24 21:44:00,56.4,51.0,30.22,NW,319,0.0,0.0,82,0.00,CLR,,0.05,0.0,WeatherDisplay:10.37,2013-12-25 02:44:00,
2013-12-24 21:45:00,56.3,50.9,30.22,NW,320,0.0,0.0,82,0.00,CLR,,0.05,0.0,WeatherDisplay:10.37,2013-12-25 02:45:00,
2013-12-24 21:47:00,56.3,51.2,30.22,NW,320,0.0,0.0,83,0.00,CLR,,0.05,0.0,WeatherDisplay:10.37,2013-12-25 02:47:00,
2013-12-24 21:48:00,56.3,51.2,30.22,NW,320,0.0,0.0,83,0.00,CLR,,0.05,0.0,WeatherDisplay:10.37,2013-12-25 02:48:00,
2013-12-24 21:49:00,56.3,50.9,30.22,NW,320,0.0,0.0,82,0.00,CLR,,0.05,0.0,WeatherDisplay:10.37,2013-12-25 02:49:00,
2013-12-24 21:50:00,56.3,50.9,30.22,NW,320,0.0,0.0,82,0.00,CLR,,0.05,0.0,WeatherDisplay:10.37,2013-12-25 02:50:00,
2013-12-24 21:51:00,56.3,50.9,30.22,NW,320,0.0,0.0,82,0.00,CLR,,0.05,0.0,WeatherDisplay:10.37,2013-12-25 02:51:00,
2013-12-24 21:52:00,56.3,50.9,30.22,NW,320,0.0,0.0,82,0.00,CLR,,0.05,0.0,WeatherDisplay:10.37,2013-12-25 02:52:00,
2013-12-24 21:53:00,56.2,50.8,30.22,NW,320,0.0,0.0,82,0.00,CLR,,0.05,0.0,WeatherDisplay:10.37,2013-12-25 02:53:00,
2013-12-24 21:54:00,56.2,50.8,30.22,NW,320,0.0,0.0,82,0.00,CLR,,0.05,0.0,WeatherDisplay:10.37,2013-12-25 02:54:00,
2013-12-24 21:55:00,56.2,50.8,30.21,NW,320,0.0,0.0,82,0.00,CLR,,0.05,0.0,WeatherDisplay:10.37,2013-12-25 02:55:00,
2013-12-24 21:56:00,56.2,50.8,30.22,NW,320,0.0,0.0,82,0.00,CLR,,0.05,0.0,WeatherDisplay:10.37,2013-12-25 02:56:00,
2013-12-24 21:57:00,56.2,50.8,30.22,NW,320,0.0,0.0,82,0.00,CLR,,0.05,0.0,WeatherDisplay:10.37,2013-12-25 02:57:00,
2013-12-24 21:58:00,56.2,50.8,30.22,NW,320,0.0,0.0,82,0.00,CLR,,0.05,0.0,WeatherDisplay:10.37,2013-12-25 02:58:00,
2013-12-24 21:59:00,56.2,50.8,30.22,NW,308,0.0,0.0,82,0.00,CLR,,0.05,0.0,WeatherDisplay:10.37,2013-12-25 02:59:00,
2013-12-24 22:00:00,56.1,50.7,30.22,NW,307,0.0,0.0,82,0.00,CLR,,0.05,0.0,WeatherDisplay:10.37,2013-12-25 03:00:00,
2013-12-24 22:01:00,56.1,50.7,30.22,NW,309,0.0,0.0,82,0.00,CLR,,0.05,0.0,WeatherDisplay:10.37,2013-12-25 03:01:00,
2013-12-24 22:03:00,56.1,50.7,30.22,NW,308,0.0,0.0,82,0.00,CLR,,0.05,0.0,WeatherDisplay:10.37,2013-12-25 03:03:00,
2013-12-24 22:04:00,56.1,50.7,30.22,NW,307,0.0,0.0,82,0.00,CLR,,0.05,0.0,WeatherDisplay:10.37,2013-12-25 03:04:00,
2013-12-24 22:05:00,56.0,50.6,30.22,NW,308,0.0,0.0,82,0.00,CLR,,0.05,0.0,WeatherDisplay:10.37,2013-12-25 03:05:00,
2013-12-24 22:07:00,56.0,50.9,30.22,West,279,0.4,0.0,83,0.00,CLR,,0.05,0.0,WeatherDisplay:10.37,2013-12-25 03:07:00,
2013-12-24 22:08:00,56.0,50.9,30.22,West,279,0.0,2.3,83,0.00,CLR,,0.05,0.0,WeatherDisplay:10.37,2013-12-25 03:08:00,
2013-12-24 22:10:00,55.9,50.8,30.22,WNW,303,2.4,3.5,83,0.00,CLR,,0.05,0.0,WeatherDisplay:10.37,2013-12-25 03:10:00,
2013-12-24 22:11:00,55.8,50.7,30.22,WNW,303,0.9,3.5,83,0.00,CLR,,0.05,0.0,WeatherDisplay:10.37,2013-12-25 03:11:00,
2013-12-24 22:12:00,55.8,50.7,30.22,WNW,301,0.0,3.5,83,0.00,CLR,,0.05,0.0,WeatherDisplay:10.37,2013-12-25 03:12:00,
2013-12-24 22:13:00,55.7,50.6,30.22,WNW,288,0.0,0.0,83,0.00,CLR,,0.05,0.0,WeatherDisplay:10.37,2013-12-25 03:13:00,
2013-12-24 22:15:00,55.5,50.4,30.22,WNW,302,0.0,0.0,83,0.00,CLR,,0.05,0.0,WeatherDisplay:10.37,2013-12-25 03:15:00,
2013-12-24 22:16:00,55.4,50.3,30.22,WNW,302,0.0,0.0,83,0.00,CLR,,0.05,0.0,WeatherDisplay:10.37,2013-12-25 03:16:00,
2013-12-24 22:17:00,55.3,50.2,30.22,WNW,293,0.2,3.0,83,0.00,CLR,,0.05,0.0,WeatherDisplay:10.37,2013-12-25 03:17:00,
2013-12-24 22:18:00,55.2,50.1,30.22,WNW,294,0.9,2.3,83,0.00,CLR,,0.05,0.0,WeatherDisplay:10.37,2013-12-25 03:18:00,
2013-12-24 22:21:00,55.1,50.0,30.22,WNW,297,0.2,1.2,83,0.00,CLR,,0.05,0.0,WeatherDisplay:10.37,2013-12-25 03:21:00,
2013-12-24 22:22:00,55.0,49.9,30.22,NW,309,0.6,3.5,83,0.00,CLR,,0.05,0.0,WeatherDisplay:10.37,2013-12-25 03:22:00,
2013-12-24 22:23:00,54.9,49.8,30.22,NW,311,0.6,3.5,83,0.00,CLR,,0.05,0.0,WeatherDisplay:10.37,2013-12-25 03:23:00,
2013-12-24 22:26:00,54.8,50.1,30.22,WNW,300,0.0,3.5,84,0.00,CLR,,0.05,0.0,WeatherDisplay:10.37,2013-12-25 03:26:00,
2013-12-24 22:27:00,54.7,50.0,30.22,WNW,296,0.9,5.8,84,0.00,CLR,,0.05,0.0,WeatherDisplay:10.37,2013-12-25 03:27:00,
2013-12-24 22:28:00,54.6,49.9,30.22,NW,306,0.0,0.0,84,0.00,CLR,,0.05,0.0,WeatherDisplay:10.37,2013-12-25 03:28:00,
2013-12-24 22:31:00,54.5,49.8,30.22,NW,316,0.0,0.0,84,0.00,CLR,,0.05,0.0,WeatherDisplay:10.37,2013-12-25 03:31:00,
2013-12-24 22:32:00,54.5,49.8,30.22,NW,316,0.0,0.0,84,0.00,CLR,,0.05,0.0,WeatherDisplay:10.37,2013-12-25 03:32:00,
2013-12-24 22:33:00,54.5,49.8,30.22,NW,319,0.0,0.0,84,0.00,CLR,,0.05,0.0,WeatherDisplay:10.37,2013-12-25 03:33:00,
2013-12-24 22:34:00,54.4,49.7,30.22,WNW,299,0.0,0.0,84,0.00,CLR,,0.05,0.0,WeatherDisplay:10.37,2013-12-25 03:34:00,
2013-12-24 22:36:00,54.3,49.6,30.22,WNW,294,0.0,0.0,84,0.00,CLR,,0.05,0.0,WeatherDisplay:10.37,2013-12-25 03:36:00,
2013-12-24 22:37:00,54.3,49.6,30.22,WNW,295,0.0,0.0,84,0.00,CLR,,0.05,0.0,WeatherDisplay:10.37,2013-12-25 03:37:00,
2013-12-24 22:38:00,54.3,49.6,30.22,NNW,340,0.0,0.0,84,0.00,CLR,,0.05,0.0,WeatherDisplay:10.37,2013-12-25 03:38:00,
2013-12-24 22:39:00,54.2,49.5,30.22,NNW,336,0.0,0.0,84,0.00,CLR,,0.05,0.0,WeatherDisplay:10.37,2013-12-25 03:39:00,
2013-12-24 22:41:00,54.1,49.4,30.22,NW,311,1.2,4.6,84,0.00,CLR,,0.05,0.0,WeatherDisplay:10.37,2013-12-25 03:41:00,
2013-12-24 22:42:00,54.1,49.4,30.22,NW,310,0.5,4.6,84,0.00,CLR,,0.05,0.0,WeatherDisplay:10.37,2013-12-25 03:42:00,
2013-12-24 22:43:00,54.1,49.4,30.22,NW,323,1.2,2.3,84,0.00,CLR,,0.05,0.0,WeatherDisplay:10.37,2013-12-25 03:43:00,
2013-12-24 22:44:00,54.1,49.4,30.22,NW,319,0.0,0.0,84,0.00,CLR,,0.05,0.0,WeatherDisplay:10.37,2013-12-25 03:44:00,
2013-12-24 22:47:00,54.1,49.7,30.22,NW,323,0.0,0.0,85,0.00,CLR,,0.05,0.0,WeatherDisplay:10.37,2013-12-25 03:47:00,
2013-12-24 22:48:00,54.0,49.6,30.22,NW,321,0.0,0.0,85,0.00,CLR,,0.05,0.0,WeatherDisplay:10.37,2013-12-25 03:48:00,
2013-12-24 22:49:00,54.0,49.6,30.22,NW,319,0.0,0.0,85,0.00,CLR,,0.05,0.0,WeatherDisplay:10.37,2013-12-25 03:49:00,
2013-12-24 22:50:00,54.0,49.6,30.22,NW,318,0.0,0.0,85,0.00,CLR,,0.05,0.0,WeatherDisplay:10.37,2013-12-25 03:50:00,
2013-12-24 22:52:00,54.0,49.6,30.22,NW,307,1.1,3.5,85,0.00,CLR,,0.05,0.0,WeatherDisplay:10.37,2013-12-25 03:52:00,
2013-12-24 22:53:00,53.9,49.5,30.22,NW,313,0.5,3.5,85,0.00,CLR,,0.05,0.0,WeatherDisplay:10.37,2013-12-25 03:53:00,
2013-12-24 22:54:00,54.0,49.3,30.22,NW,311,0.0,3.5,84,0.00,CLR,,0.05,0.0,WeatherDisplay:10.37,2013-12-25 03:54:00,
2013-12-24 22:55:00,53.9,49.2,30.21,NW,310,0.0,0.0,84,0.00,CLR,,0.05,0.0,WeatherDisplay:10.37,2013-12-25 03:55:00,
2013-12-24 22:57:00,53.9,49.2,30.21,NW,305,0.0,0.0,84,0.00,CLR,,0.05,0.0,WeatherDisplay:10.37,2013-12-25 03:57:00,
2013-12-24 22:58:00,53.9,49.2,30.21,NW,308,0.0,0.0,84,0.00,CLR,,0.05,0.0,WeatherDisplay:10.37,2013-12-25 03:58:00,
2013-12-24 22:59:00,53.9,49.2,30.21,NW,309,0.0,0.0,84,0.00,CLR,,0.05,0.0,WeatherDisplay:10.37,2013-12-25 03:59:00,
2013-12-24 23:00:00,53.9,49.2,30.21,WNW,292,0.0,0.0,84,0.00,CLR,,0.05,0.0,WeatherDisplay:10.37,2013-12-25 04:00:00,
2013-12-24 23:02:00,53.9,49.5,30.21,NNW,329,0.0,3.5,85,0.00,CLR,,0.05,0.0,WeatherDisplay:10.37,2013-12-25 04:02:00,
2013-12-24 23:04:00,53.8,49.4,30.21,NW,325,0.3,5.0,85,0.00,CLR,,0.05,0.0,WeatherDisplay:10.37,2013-12-25 04:04:00,
2013-12-24 23:05:00,53.8,49.4,30.21,NNW,329,1.5,0.0,85,0.00,CLR,,0.05,0.0,WeatherDisplay:10.37,2013-12-25 04:05:00,
2013-12-24 23:07:00,53.7,49.3,30.21,NNW,331,0.0,0.0,85,0.00,CLR,,0.05,0.0,WeatherDisplay:10.37,2013-12-25 04:07:00,
2013-12-24 23:09:00,53.7,49.3,30.21,NNW,327,0.4,3.0,85,0.00,CLR,,0.05,0.0,WeatherDisplay:10.37,2013-12-25 04:09:00,
2013-12-24 23:10:00,53.7,49.3,30.21,NNW,327,0.7,3.5,85,0.00,CLR,,0.05,0.0,WeatherDisplay:10.37,2013-12-25 04:10:00,
2013-12-24 23:12:00,53.7,49.3,30.21,West,279,0.0,3.5,85,0.00,CLR,,0.05,0.0,WeatherDisplay:10.37,2013-12-25 04:12:00,
2013-12-24 23:14:00,53.7,49.3,30.21,NW,325,0.6,3.5,85,0.00,CLR,,0.05,0.0,WeatherDisplay:10.37,2013-12-25 04:14:00,
2013-12-24 23:15:00,53.7,49.3,30.21,NW,304,1.0,3.5,85,0.00,CLR,,0.05,0.0,WeatherDisplay:10.37,2013-12-25 04:15:00,
2013-12-24 23:16:00,53.7,49.3,30.21,NW,311,0.4,3.5,85,0.00,CLR,,0.05,0.0,WeatherDisplay:10.37,2013-12-25 04:16:00,
2013-12-24 23:18:00,53.7,49.3,30.21,NW,313,0.0,0.0,85,0.00,CLR,,0.05,0.0,WeatherDisplay:10.37,2013-12-25 04:18:00,
2013-12-24 23:19:00,53.6,49.2,30.21,WNW,300,0.3,2.3,85,0.00,CLR,,0.05,0.0,WeatherDisplay:10.37,2013-12-25 04:19:00,
2013-12-24 23:20:00,53.7,49.3,30.21,WNW,302,0.0,2.3,85,0.00,CLR,,0.05,0.0,WeatherDisplay:10.37,2013-12-25 04:20:00,
2013-12-24 23:21:00,53.6,49.2,30.21,WNW,301,0.0,2.3,85,0.00,CLR,,0.05,0.0,WeatherDisplay:10.37,2013-12-25 04:21:00,
2013-12-24 23:23:00,53.6,49.2,30.21,WNW,302,0.0,0.0,85,0.00,CLR,,0.05,0.0,WeatherDisplay:10.37,2013-12-25 04:23:00,
2013-12-24 23:24:00,53.6,49.2,30.21,WNW,303,0.0,0.0,85,0.00,CLR,,0.05,0.0,WeatherDisplay:10.37,2013-12-25 04:24:00,
2013-12-24 23:25:00,53.6,49.5,30.21,North,360,0.5,0.0,86,0.00,CLR,,0.05,0.0,WeatherDisplay:10.37,2013-12-25 04:25:00,
2013-12-24 23:26:00,53.6,49.5,30.21,NNW,332,0.6,3.5,86,0.00,CLR,,0.05,0.0,WeatherDisplay:10.37,2013-12-25 04:26:00,
2013-12-24 23:27:00,53.6,49.5,30.21,NNW,331,0.1,3.5,86,0.00,CLR,,0.05,0.0,WeatherDisplay:10.37,2013-12-25 04:27:00,
2013-12-24 23:28:00,53.6,49.5,30.21,NNW,331,0.0,0.0,86,0.00,CLR,,0.05,0.0,WeatherDisplay:10.37,2013-12-25 04:28:00,
2013-12-24 23:29:00,53.6,49.5,30.21,NNW,331,0.0,0.0,86,0.00,CLR,,0.05,0.0,WeatherDisplay:10.37,2013-12-25 04:29:00,
2013-12-24 23:31:00,53.6,49.5,30.21,NNW,331,0.0,0.0,86,0.00,CLR,,0.05,0.0,WeatherDisplay:10.37,2013-12-25 04:31:00,
2013-12-24 23:32:00,53.6,49.5,30.21,NNW,338,0.4,3.0,86,0.00,CLR,,0.05,0.0,WeatherDisplay:10.37,2013-12-25 04:32:00,
2013-12-24 23:33:00,53.6,49.5,30.21,NNW,335,0.1,3.5,86,0.00,CLR,,0.05,0.0,WeatherDisplay:10.37,2013-12-25 04:33:00,
2013-12-24 23:35:00,53.5,49.4,30.21,NNW,338,0.0,0.0,86,0.00,CLR,,0.05,0.0,WeatherDisplay:10.37,2013-12-25 04:35:00,
2013-12-24 23:36:00,53.5,49.4,30.21,NNW,338,0.0,0.0,86,0.00,CLR,,0.05,0.0,WeatherDisplay:10.37,2013-12-25 04:36:00,
2013-12-24 23:37:00,53.5,49.4,30.21,NNW,339,0.0,0.0,86,0.00,CLR,,0.05,0.0,WeatherDisplay:10.37,2013-12-25 04:37:00,
2013-12-24 23:38:00,53.5,49.4,30.21,NNW,340,0.0,0.0,86,0.00,CLR,,0.05,0.0,WeatherDisplay:10.37,2013-12-25 04:38:00,
2013-12-24 23:41:00,53.5,49.4,30.21,NNW,337,0.0,0.0,86,0.00,CLR,,0.05,0.0,WeatherDisplay:10.37,2013-12-25 04:41:00,
2013-12-24 23:42:00,53.4,49.3,30.21,NNW,338,0.0,0.0,86,0.00,CLR,,0.05,0.0,WeatherDisplay:10.37,2013-12-25 04:42:00,
2013-12-24 23:43:00,53.4,49.3,30.21,NNW,338,0.0,0.0,86,0.00,CLR,,0.05,0.0,WeatherDisplay:10.37,2013-12-25 04:43:00,
2013-12-24 23:46:00,53.4,49.3,30.21,NNW,337,0.0,0.0,86,0.00,CLR,,0.05,0.0,WeatherDisplay:10.37,2013-12-25 04:46:00,
2013-12-24 23:47:00,53.3,49.2,30.21,NNW,337,0.0,0.0,86,0.00,CLR,,0.05,0.0,WeatherDisplay:10.37,2013-12-25 04:47:00,
2013-12-24 23:48:00,53.3,49.2,30.21,NNW,334,0.0,0.0,86,0.00,CLR,,0.05,0.0,WeatherDisplay:10.37,2013-12-25 04:48:00,
2013-12-24 23:51:00,53.3,49.2,30.21,NNW,333,0.6,2.0,86,0.00,CLR,,0.05,0.0,WeatherDisplay:10.37,2013-12-25 04:51:00,
2013-12-24 23:53:00,53.3,49.2,30.21,NNW,333,0.6,5.0,86,0.00,CLR,,0.05,0.0,WeatherDisplay:10.37,2013-12-25 04:53:00,
2013-12-24 23:54:00,53.3,49.2,30.21,NNW,333,1.4,1.4,86,0.00,CLR,,0.05,0.0,WeatherDisplay:10.37,2013-12-25 04:54:00,
2013-12-24 23:56:00,53.3,49.2,30.21,NNW,333,0.0,0.0,86,0.00,CLR,,0.05,0.0,WeatherDisplay:10.37,2013-12-25 04:56:00,
2013-12-24 23:57:00,53.3,49.2,30.21,NNW,332,0.0,0.0,86,0.00,CLR,,0.05,0.0,WeatherDisplay:10.37,2013-12-25 04:57:00,
2013-12-24 23:58:00,53.3,49.2,30.21,NNW,331,0.0,0.0,86,0.00,CLR,,0.05,0.0,WeatherDisplay:10.37,2013-12-25 04:58:00,
2013-12-24 23:59:00,53.3,49.2,30.21,NNW,331,0.0,0.0,86,0.00,CLR,,0.05,0.0,WeatherDisplay:10.37,2013-12-25 04:59:00,